Wetterdaten: Samstag, 03.07.2010
Datum Zeit Temp. Innen Temp. Aussen UV X Diff Temp. Feuchte Inne Feuchte Auss Sonnenschein Luftdruck Regen ab 0,1 Wind Sonnenschein Windben
03.07.2010 00:00 27,6 C 25,8 C 0,0 UV-I 0,0 C 51 % 51 % 0 % 1017,6 hPa 0,0 l/m 1,6 km/h (1 Bft) 0 min 3,5 km/h (1 Bft)
03.07.2010 00:02 27,6 C 25,9 C 0,0 UV-I 0,0 C 51 % 52 % 0 % 1017,6 hPa 0,0 l/m 0,8 km/h (0 Bft) 0 min 0,0 km/h (0 Bft)
03.07.2010 00:04 27,5 C 25,9 C 0,0 UV-I 0,0 C 51 % 52 % 0 % 1017,6 hPa 0,0 l/m 0,8 km/h (0 Bft) 0 min 0,0 km/h (0 Bft)
03.07.2010 00:06 27,5 C 25,7 C 0,0 UV-I 0,0 C 51 % 52 % 0 % 1017,6 hPa 0,0 l/m 0,4 km/h (0 Bft) 0 min 0,0 km/h (0 Bft)
03.07.2010 00:08 27,5 C 25,7 C 0,0 UV-I 0,0 C 51 % 52 % 0 % 1017,6 hPa 0,0 l/m 0,4 km/h (0 Bft) 0 min 0,0 km/h (0 Bft)
03.07.2010 00:10 27,5 C 25,7 C 0,0 UV-I 0,0 C 51 % 52 % 0 % 1017,8 hPa 0,0 l/m 0,4 km/h (0 Bft) 0 min 0,0 km/h (0 Bft)
03.07.2010 00:12 27,5 C 25,6 C 0,0 UV-I 0,0 C 51 % 52 % 0 % 1017,8 hPa 0,0 l/m 0,4 km/h (0 Bft) 0 min 3,5 km/h (1 Bft)
03.07.2010 00:14 27,5 C 25,6 C 0,0 UV-I 0,0 C 51 % 52 % 0 % 1017,8 hPa 0,0 l/m 0,4 km/h (0 Bft) 0 min 0,0 km/h (0 Bft)
03.07.2010 00:16 27,5 C 25,7 C 0,0 UV-I 0,0 C 51 % 52 % 0 % 1017,8 hPa 0,0 l/m 0,4 km/h (0 Bft) 0 min 0,0 km/h (0 Bft)
03.07.2010 00:20 27,4 C 25,6 C 0,0 UV-I 0,0 C 51 % 52 % 0 % 1017,8 hPa 0,0 l/m 0,8 km/h (0 Bft) 0 min 4,8 km/h (1 Bft)
03.07.2010 00:22 27,4 C 25,5 C 0,0 UV-I 0,0 C 51 % 52 % 0 % 1017,8 hPa 0,0 l/m 0,8 km/h (0 Bft) 0 min 0,0 km/h (0 Bft)
03.07.2010 00:24 27,4 C 25,5 C 0,0 UV-I 0,0 C 51 % 52 % 0 % 1017,8 hPa 0,0 l/m 1,2 km/h (1 Bft) 0 min 5,8 km/h (2 Bft)
03.07.2010 00:26 27,4 C 25,5 C 0,0 UV-I 0,0 C 51 % 53 % 0 % 1017,8 hPa 0,0 l/m 1,2 km/h (1 Bft) 0 min 3,2 km/h (1 Bft)
03.07.2010 00:28 27,4 C 25,4 C 0,0 UV-I 0,0 C 51 % 53 % 0 % 1017,8 hPa 0,0 l/m 1,2 km/h (1 Bft) 0 min 3,5 km/h (1 Bft)
03.07.2010 00:30 27,4 C 25,4 C 0,0 UV-I 0,0 C 51 % 53 % 0 % 1017,6 hPa 0,0 l/m 1,2 km/h (1 Bft) 0 min 5,8 km/h (2 Bft)
03.07.2010 00:32 27,4 C 25,5 C 0,0 UV-I 0,0 C 51 % 53 % 0 % 1017,6 hPa 0,0 l/m 0,8 km/h (0 Bft) 0 min 0,0 km/h (0 Bft)
03.07.2010 00:34 27,4 C 25,5 C 0,0 UV-I 0,0 C 51 % 53 % 0 % 1017,6 hPa 0,0 l/m 1,6 km/h (1 Bft) 0 min 5,1 km/h (1 Bft)
03.07.2010 00:38 27,4 C 25,3 C 0,0 UV-I 0,0 C 51 % 53 % 0 % 1017,6 hPa 0,0 l/m 1,6 km/h (1 Bft) 0 min 4,2 km/h (1 Bft)
03.07.2010 00:40 27,4 C 25,3 C 0,0 UV-I 0,0 C 51 % 53 % 0 % 1017,6 hPa 0,0 l/m 1,2 km/h (1 Bft) 0 min 6,1 km/h (2 Bft)
03.07.2010 00:42 27,2 C 25,3 C 0,0 UV-I 0,0 C 51 % 53 % 0 % 1017,6 hPa 0,0 l/m 2,0 km/h (1 Bft) 0 min 4,8 km/h (1 Bft)
03.07.2010 00:44 27,2 C 25,2 C 0,0 UV-I 0,0 C 51 % 53 % 0 % 1017,6 hPa 0,0 l/m 2,4 km/h (1 Bft) 0 min 3,5 km/h (1 Bft)
03.07.2010 00:48 27,2 C 25,2 C 0,0 UV-I 0,0 C 51 % 54 % 0 % 1017,6 hPa 0,0 l/m 2,0 km/h (1 Bft) 0 min 0,0 km/h (0 Bft)
03.07.2010 00:50 27,2 C 25,2 C 0,0 UV-I 0,0 C 51 % 54 % 0 % 1017,6 hPa 0,0 l/m 2,0 km/h (1 Bft) 0 min 0,0 km/h (0 Bft)
03.07.2010 00:52 27,2 C 25,1 C 0,0 UV-I 0,0 C 51 % 54 % 0 % 1017,6 hPa 0,0 l/m 0,8 km/h (0 Bft) 0 min 0,0 km/h (0 Bft)
03.07.2010 00:54 27,3 C 25,1 C 0,0 UV-I 0,0 C 51 % 54 % 0 % 1017,6 hPa 0,0 l/m 0,4 km/h (0 Bft) 0 min 0,0 km/h (0 Bft)
03.07.2010 00:56 27,3 C 25,1 C 0,0 UV-I 0,0 C 51 % 54 % 0 % 1017,6 hPa 0,0 l/m 0,4 km/h (0 Bft) 0 min 0,0 km/h (0 Bft)
03.07.2010 00:58 27,3 C 25,1 C 0,0 UV-I 0,0 C 51 % 54 % 0 % 1017,6 hPa 0,0 l/m 0,4 km/h (0 Bft) 0 min 0,0 km/h (0 Bft)
03.07.2010 01:00 27,3 C 24,9 C 0,0 UV-I 0,0 C 51 % 54 % 0 % 1017,6 hPa 0,0 l/m 0,4 km/h (0 Bft) 0 min 0,0 km/h (0 Bft)
03.07.2010 01:04 27,3 C 24,8 C 0,0 UV-I 0,0 C 51 % 55 % 0 % 1017,6 hPa 0,0 l/m 0,4 km/h (0 Bft) 0 min 3,5 km/h (1 Bft)
03.07.2010 01:06 27,2 C 24,9 C 0,0 UV-I 0,0 C 52 % 55 % 0 % 1017,6 hPa 0,0 l/m 0,4 km/h (0 Bft) 0 min 3,5 km/h (1 Bft)
03.07.2010 01:08 27,2 C 24,8 C 0,0 UV-I 0,0 C 51 % 55 % 0 % 1017,6 hPa 0,0 l/m 0,8 km/h (0 Bft) 0 min 4,5 km/h (1 Bft)
03.07.2010 01:10 27,2 C 24,8 C 0,0 UV-I 0,0 C 51 % 55 % 0 % 1017,6 hPa 0,0 l/m 0,8 km/h (0 Bft) 0 min 4,5 km/h (1 Bft)
03.07.2010 01:12 27,2 C 24,7 C 0,0 UV-I 0,0 C 52 % 55 % 0 % 1017,6 hPa 0,0 l/m 1,6 km/h (1 Bft) 0 min 7,1 km/h (2 Bft)
03.07.2010 01:14 27,2 C 24,7 C 0,0 UV-I 0,0 C 52 % 56 % 0 % 1017,6 hPa 0,0 l/m 2,4 km/h (1 Bft) 0 min 5,1 km/h (1 Bft)
03.07.2010 01:16 27,2 C 24,7 C 0,0 UV-I 0,0 C 52 % 56 % 0 % 1017,6 hPa 0,0 l/m 2,4 km/h (1 Bft) 0 min 0,0 km/h (0 Bft)
03.07.2010 01:20 27,2 C 24,6 C 0,0 UV-I 0,0 C 52 % 56 % 0 % 1017,6 hPa 0,0 l/m 3,2 km/h (1 Bft) 0 min 4,8 km/h (1 Bft)
03.07.2010 01:22 27,2 C 24,6 C 0,0 UV-I 0,0 C 52 % 56 % 0 % 1017,6 hPa 0,0 l/m 2,8 km/h (1 Bft) 0 min 0,0 km/h (0 Bft)
03.07.2010 01:24 27,2 C 24,7 C 0,0 UV-I 0,0 C 52 % 56 % 0 % 1017,6 hPa 0,0 l/m 2,8 km/h (1 Bft) 0 min 6,4 km/h (2 Bft)
03.07.2010 01:26 27,2 C 24,6 C 0,0 UV-I 0,0 C 52 % 56 % 0 % 1017,6 hPa 0,0 l/m 2,8 km/h (1 Bft) 0 min 3,5 km/h (1 Bft)
03.07.2010 01:28 27,2 C 24,6 C 0,0 UV-I 0,0 C 52 % 57 % 0 % 1017,6 hPa 0,0 l/m 2,4 km/h (1 Bft) 0 min 0,0 km/h (0 Bft)
03.07.2010 01:32 27,2 C 24,5 C 0,0 UV-I 0,0 C 52 % 57 % 0 % 1017,9 hPa 0,0 l/m 0,8 km/h (0 Bft) 0 min 0,0 km/h (0 Bft)
03.07.2010 01:34 27,2 C 24,5 C 0,0 UV-I 0,0 C 52 % 57 % 0 % 1017,9 hPa 0,0 l/m 1,2 km/h (1 Bft) 0 min 3,5 km/h (1 Bft)
03.07.2010 01:40 27,2 C 24,4 C 0,0 UV-I 0,0 C 52 % 57 % 0 % 1017,9 hPa 0,0 l/m 2,0 km/h (1 Bft) 0 min 0,0 km/h (0 Bft)
03.07.2010 01:42 27,2 C 24,4 C 0,0 UV-I 0,0 C 52 % 57 % 0 % 1017,9 hPa 0,0 l/m 2,4 km/h (1 Bft) 0 min 4,2 km/h (1 Bft)
03.07.2010 01:44 27,2 C 24,4 C 0,0 UV-I 0,0 C 52 % 57 % 0 % 1017,9 hPa 0,0 l/m 2,0 km/h (1 Bft) 0 min 0,0 km/h (0 Bft)
03.07.2010 01:46 27,1 C 24,5 C 0,0 UV-I 0,0 C 52 % 57 % 0 % 1017,9 hPa 0,0 l/m 2,4 km/h (1 Bft) 0 min 6,4 km/h (2 Bft)
03.07.2010 01:48 27,1 C 24,5 C 0,0 UV-I 0,0 C 52 % 57 % 0 % 1017,9 hPa 0,0 l/m 2,4 km/h (1 Bft) 0 min 3,5 km/h (1 Bft)
03.07.2010 01:50 27,1 C 24,5 C 0,0 UV-I 0,0 C 52 % 57 % 0 % 1017,6 hPa 0,0 l/m 2,4 km/h (1 Bft) 0 min 3,5 km/h (1 Bft)
03.07.2010 01:52 27,1 C 24,4 C 0,0 UV-I 0,0 C 52 % 58 % 0 % 1017,6 hPa 0,0 l/m 1,6 km/h (1 Bft) 0 min 0,0 km/h (0 Bft)
03.07.2010 01:58 27,1 C 24,2 C 0,0 UV-I 0,0 C 52 % 58 % 0 % 1017,6 hPa 0,0 l/m 1,6 km/h (1 Bft) 0 min 3,5 km/h (1 Bft)
03.07.2010 02:00 27,1 C 24,3 C 0,0 UV-I 0,0 C 52 % 58 % 0 % 1017,6 hPa 0,0 l/m 2,0 km/h (1 Bft) 0 min 7,4 km/h (2 Bft)
03.07.2010 02:04 27,1 C 24,1 C 0,0 UV-I 0,0 C 52 % 58 % 0 % 1017,6 hPa 0,0 l/m 2,8 km/h (1 Bft) 0 min 3,5 km/h (1 Bft)
03.07.2010 02:06 27,1 C 24,1 C 0,0 UV-I 0,0 C 52 % 58 % 0 % 1017,6 hPa 0,0 l/m 2,8 km/h (1 Bft) 0 min 4,2 km/h (1 Bft)
03.07.2010 02:10 27,1 C 24,0 C 0,0 UV-I 0,0 C 52 % 58 % 0 % 1017,7 hPa 0,0 l/m 2,4 km/h (1 Bft) 0 min 3,9 km/h (1 Bft)
03.07.2010 02:16 27,0 C 24,0 C 0,0 UV-I 0,0 C 52 % 59 % 0 % 1017,7 hPa 0,0 l/m 1,2 km/h (1 Bft) 0 min 4,5 km/h (1 Bft)
03.07.2010 02:18 27,0 C 23,9 C 0,0 UV-I 0,0 C 52 % 59 % 0 % 1017,7 hPa 0,0 l/m 1,2 km/h (1 Bft) 0 min 6,1 km/h (2 Bft)
03.07.2010 02:20 27,0 C 23,9 C 0,0 UV-I 0,0 C 52 % 59 % 0 % 1017,7 hPa 0,0 l/m 1,2 km/h (1 Bft) 0 min 3,5 km/h (1 Bft)
03.07.2010 02:22 27,0 C 23,8 C 0,0 UV-I 0,0 C 52 % 59 % 0 % 1017,7 hPa 0,0 l/m 1,2 km/h (1 Bft) 0 min 0,0 km/h (0 Bft)
03.07.2010 02:24 27,0 C 23,9 C 0,0 UV-I 0,0 C 52 % 59 % 0 % 1017,7 hPa 0,0 l/m 1,2 km/h (1 Bft) 0 min 0,0 km/h (0 Bft)
03.07.2010 02:26 27,0 C 23,9 C 0,0 UV-I 0,0 C 52 % 59 % 0 % 1017,7 hPa 0,0 l/m 0,8 km/h (0 Bft) 0 min 0,0 km/h (0 Bft)
03.07.2010 02:34 27,0 C 23,7 C 0,0 UV-I 0,0 C 52 % 60 % 0 % 1017,5 hPa 0,0 l/m 0,0 km/h (0 Bft) 0 min 0,0 km/h (0 Bft)
03.07.2010 02:36 27,0 C 23,6 C 0,0 UV-I 0,0 C 52 % 61 % 0 % 1017,5 hPa 0,0 l/m 0,4 km/h (0 Bft) 0 min 0,0 km/h (0 Bft)
03.07.2010 02:42 27,0 C 23,4 C 0,0 UV-I 0,0 C 52 % 62 % 0 % 1017,5 hPa 0,0 l/m 0,8 km/h (0 Bft) 0 min 3,2 km/h (1 Bft)
03.07.2010 02:44 27,0 C 23,3 C 0,0 UV-I 0,0 C 52 % 62 % 0 % 1017,5 hPa 0,0 l/m 1,2 km/h (1 Bft) 0 min 0,0 km/h (0 Bft)
03.07.2010 02:46 27,0 C 23,3 C 0,0 UV-I 0,0 C 52 % 62 % 0 % 1017,5 hPa 0,0 l/m 1,6 km/h (1 Bft) 0 min 0,0 km/h (0 Bft)
03.07.2010 02:48 27,0 C 23,2 C 0,0 UV-I 0,0 C 52 % 63 % 0 % 1017,8 hPa 0,0 l/m 1,6 km/h (1 Bft) 0 min 5,1 km/h (1 Bft)
03.07.2010 02:56 26,9 C 23,3 C 0,0 UV-I 0,0 C 52 % 62 % 0 % 1017,8 hPa 0,0 l/m 1,2 km/h (1 Bft) 0 min 0,0 km/h (0 Bft)
03.07.2010 02:58 26,9 C 23,3 C 0,0 UV-I 0,0 C 52 % 62 % 0 % 1017,8 hPa 0,0 l/m 1,2 km/h (1 Bft) 0 min 0,0 km/h (0 Bft)
03.07.2010 03:00 26,9 C 23,3 C 0,0 UV-I 0,0 C 52 % 63 % 0 % 1017,8 hPa 0,0 l/m 0,8 km/h (0 Bft) 0 min 0,0 km/h (0 Bft)
03.07.2010 03:02 26,9 C 23,3 C 0,0 UV-I 0,0 C 52 % 62 % 0 % 1017,8 hPa 0,0 l/m 0,0 km/h (0 Bft) 0 min 0,0 km/h (0 Bft)
03.07.2010 03:04 26,9 C 23,3 C 0,0 UV-I 0,0 C 53 % 62 % 0 % 1017,8 hPa 0,0 l/m 0,0 km/h (0 Bft) 0 min 0,0 km/h (0 Bft)
03.07.2010 03:06 26,9 C 23,2 C 0,0 UV-I 0,0 C 52 % 63 % 0 % 1017,8 hPa 0,0 l/m 0,4 km/h (0 Bft) 0 min 3,2 km/h (1 Bft)
03.07.2010 03:08 26,9 C 23,2 C 0,0 UV-I 0,0 C 53 % 62 % 0 % 1017,8 hPa 0,0 l/m 0,4 km/h (0 Bft) 0 min 0,0 km/h (0 Bft)
03.07.2010 03:10 26,9 C 23,2 C 0,0 UV-I 0,0 C 53 % 62 % 0 % 1017,6 hPa 0,0 l/m 0,4 km/h (0 Bft) 0 min 0,0 km/h (0 Bft)
03.07.2010 03:12 26,9 C 23,2 C 0,0 UV-I 0,0 C 53 % 63 % 0 % 1017,6 hPa 0,0 l/m 0,8 km/h (0 Bft) 0 min 0,0 km/h (0 Bft)
03.07.2010 03:14 26,9 C 23,1 C 0,0 UV-I 0,0 C 53 % 63 % 0 % 1017,6 hPa 0,0 l/m 0,8 km/h (0 Bft) 0 min 0,0 km/h (0 Bft)
03.07.2010 03:16 26,9 C 23,1 C 0,0 UV-I 0,0 C 53 % 63 % 0 % 1017,6 hPa 0,0 l/m 0,8 km/h (0 Bft) 0 min 0,0 km/h (0 Bft)
03.07.2010 03:18 26,9 C 23,1 C 0,0 UV-I 0,0 C 53 % 63 % 0 % 1017,6 hPa 0,0 l/m 0,8 km/h (0 Bft) 0 min 0,0 km/h (0 Bft)
03.07.2010 03:20 26,9 C 23,1 C 0,0 UV-I 0,0 C 53 % 63 % 0 % 1017,6 hPa 0,0 l/m 0,4 km/h (0 Bft) 0 min 0,0 km/h (0 Bft)
03.07.2010 03:30 26,8 C 23,0 C 0,0 UV-I 0,0 C 53 % 63 % 0 % 1017,6 hPa 0,0 l/m 0,0 km/h (0 Bft) 0 min 0,0 km/h (0 Bft)
03.07.2010 03:32 26,8 C 22,9 C 0,0 UV-I 0,0 C 53 % 64 % 0 % 1017,6 hPa 0,0 l/m 0,4 km/h (0 Bft) 0 min 0,0 km/h (0 Bft)
03.07.2010 03:34 26,8 C 22,8 C 0,0 UV-I 0,0 C 53 % 64 % 0 % 1017,6 hPa 0,0 l/m 0,4 km/h (0 Bft) 0 min 0,0 km/h (0 Bft)
03.07.2010 03:40 26,8 C 22,7 C 0,0 UV-I 0,0 C 53 % 64 % 0 % 1017,6 hPa 0,0 l/m 0,0 km/h (0 Bft) 0 min 0,0 km/h (0 Bft)
03.07.2010 03:42 26,8 C 22,7 C 0,0 UV-I 0,0 C 53 % 64 % 0 % 1017,6 hPa 0,0 l/m 0,0 km/h (0 Bft) 0 min 0,0 km/h (0 Bft)
03.07.2010 03:46 26,8 C 22,7 C 0,0 UV-I 0,0 C 53 % 64 % 0 % 1017,6 hPa 0,0 l/m 0,4 km/h (0 Bft) 0 min 0,0 km/h (0 Bft)
03.07.2010 03:48 26,8 C 22,7 C 0,0 UV-I 0,0 C 53 % 64 % 0 % 1017,6 hPa 0,0 l/m 0,4 km/h (0 Bft) 0 min 0,0 km/h (0 Bft)
03.07.2010 03:56 26,8 C 22,4 C 0,0 UV-I 0,0 C 53 % 64 % 0 % 1017,8 hPa 0,0 l/m 0,0 km/h (0 Bft) 0 min 0,0 km/h (0 Bft)
03.07.2010 04:08 26,8 C 22,3 C 0,0 UV-I 0,0 C 53 % 65 % 0 % 1018,0 hPa 0,0 l/m 0,4 km/h (0 Bft) 0 min 3,5 km/h (1 Bft)
03.07.2010 04:12 26,7 C 22,3 C 0,0 UV-I 0,0 C 53 % 66 % 0 % 1018,0 hPa 0,0 l/m 0,0 km/h (0 Bft) 0 min 0,0 km/h (0 Bft)
03.07.2010 04:20 26,7 C 22,1 C 0,0 UV-I 0,0 C 53 % 66 % 0 % 1018,0 hPa 0,0 l/m 0,0 km/h (0 Bft) 0 min 0,0 km/h (0 Bft)
03.07.2010 04:22 26,7 C 22,0 C 0,0 UV-I 0,0 C 53 % 66 % 0 % 1018,0 hPa 0,0 l/m 0,0 km/h (0 Bft) 0 min 0,0 km/h (0 Bft)
03.07.2010 04:24 26,7 C 22,0 C 0,0 UV-I 0,0 C 53 % 67 % 0 % 1018,0 hPa 0,0 l/m 0,0 km/h (0 Bft) 0 min 0,0 km/h (0 Bft)
03.07.2010 04:26 26,7 C 22,1 C 0,0 UV-I 0,0 C 53 % 67 % 0 % 1018,0 hPa 0,0 l/m 0,8 km/h (0 Bft) 0 min 4,8 km/h (1 Bft)
03.07.2010 04:28 26,7 C 22,1 C 0,0 UV-I 0,0 C 53 % 67 % 0 % 1017,8 hPa 0,0 l/m 1,2 km/h (1 Bft) 0 min 5,1 km/h (1 Bft)
03.07.2010 04:33 26,7 C 22,0 C 0,0 UV-I 0,0 C 53 % 67 % 0 % 1017,8 hPa 0,0 l/m 2,4 km/h (1 Bft) 0 min 0,0 km/h (0 Bft)
03.07.2010 04:38 26,7 C 22,0 C 0,0 UV-I 0,0 C 53 % 67 % 0 % 1017,8 hPa 0,0 l/m 2,0 km/h (1 Bft) 0 min 0,0 km/h (0 Bft)
03.07.2010 04:42 26,6 C 22,0 C 0,0 UV-I 0,0 C 53 % 67 % 0 % 1017,8 hPa 0,0 l/m 1,2 km/h (1 Bft) 0 min 0,0 km/h (0 Bft)
03.07.2010 04:44 26,6 C 21,9 C 0,0 UV-I 0,0 C 53 % 67 % 0 % 1017,8 hPa 0,0 l/m 0,4 km/h (0 Bft) 0 min 0,0 km/h (0 Bft)
03.07.2010 04:46 26,6 C 21,9 C 0,0 UV-I 0,0 C 53 % 67 % 0 % 1017,8 hPa 0,0 l/m 0,0 km/h (0 Bft) 0 min 3,2 km/h (1 Bft)
03.07.2010 04:52 26,6 C 21,9 C 0,0 UV-I 0,0 C 53 % 68 % 0 % 1017,9 hPa 0,0 l/m 0,4 km/h (0 Bft) 0 min 0,0 km/h (0 Bft)
03.07.2010 04:54 26,6 C 21,9 C 0,0 UV-I 0,0 C 53 % 68 % 0 % 1017,9 hPa 0,0 l/m 0,4 km/h (0 Bft) 0 min 0,0 km/h (0 Bft)
03.07.2010 04:56 26,6 C 21,9 C 0,0 UV-I 0,0 C 53 % 68 % 0 % 1017,9 hPa 0,0 l/m 0,4 km/h (0 Bft) 0 min 0,0 km/h (0 Bft)
03.07.2010 04:58 26,6 C 21,9 C 0,0 UV-I 0,0 C 53 % 68 % 0 % 1017,9 hPa 0,0 l/m 0,4 km/h (0 Bft) 0 min 0,0 km/h (0 Bft)
03.07.2010 05:00 26,6 C 21,8 C 0,0 UV-I 0,0 C 54 % 68 % 0 % 1017,9 hPa 0,0 l/m 0,4 km/h (0 Bft) 0 min 0,0 km/h (0 Bft)
03.07.2010 05:02 26,6 C 21,7 C 0,0 UV-I 0,0 C 54 % 68 % 0 % 1017,9 hPa 0,0 l/m 0,4 km/h (0 Bft) 0 min 3,2 km/h (1 Bft)
03.07.2010 05:04 26,6 C 21,7 C 0,0 UV-I 0,0 C 53 % 68 % 0 % 1017,9 hPa 0,0 l/m 0,8 km/h (0 Bft) 0 min 0,0 km/h (0 Bft)
03.07.2010 05:06 26,6 C 21,7 C 0,0 UV-I 0,0 C 54 % 68 % 0 % 1017,9 hPa 0,0 l/m 0,8 km/h (0 Bft) 0 min 4,8 km/h (1 Bft)
03.07.2010 05:08 26,6 C 21,6 C 0,0 UV-I 0,0 C 54 % 68 % 0 % 1017,9 hPa 0,0 l/m 1,2 km/h (1 Bft) 0 min 3,5 km/h (1 Bft)
03.07.2010 05:10 26,6 C 21,6 C 0,0 UV-I 0,0 C 54 % 68 % 0 % 1017,9 hPa 0,0 l/m 1,2 km/h (1 Bft) 0 min 3,5 km/h (1 Bft)
03.07.2010 05:14 26,6 C 21,6 C 0,0 UV-I 0,0 C 54 % 68 % 0 % 1017,9 hPa 0,0 l/m 1,6 km/h (1 Bft) 0 min 0,0 km/h (0 Bft)
03.07.2010 05:16 26,6 C 21,6 C 0,0 UV-I 0,0 C 54 % 68 % 0 % 1017,9 hPa 0,0 l/m 1,6 km/h (1 Bft) 0 min 0,0 km/h (0 Bft)
03.07.2010 05:18 26,6 C 21,6 C 0,0 UV-I 0,0 C 54 % 68 % 0 % 1017,9 hPa 0,0 l/m 0,8 km/h (0 Bft) 0 min 0,0 km/h (0 Bft)
03.07.2010 05:20 26,6 C 21,7 C 0,0 UV-I 0,0 C 54 % 68 % 0 % 1017,9 hPa 0,0 l/m 0,4 km/h (0 Bft) 0 min 0,0 km/h (0 Bft)
03.07.2010 05:26 26,6 C 21,6 C 0,0 UV-I 0,0 C 54 % 68 % 0 % 1017,9 hPa 0,0 l/m 0,0 km/h (0 Bft) 0 min 0,0 km/h (0 Bft)
03.07.2010 05:34 26,5 C 21,6 C 0,0 UV-I 0,0 C 54 % 69 % 0 % 1017,8 hPa 0,0 l/m 1,2 km/h (1 Bft) 0 min 3,9 km/h (1 Bft)
03.07.2010 05:38 26,5 C 21,5 C 0,0 UV-I 0,0 C 54 % 69 % 0 % 1017,8 hPa 0,0 l/m 1,6 km/h (1 Bft) 0 min 3,2 km/h (1 Bft)
03.07.2010 05:44 26,5 C 21,5 C 0,0 UV-I 0,0 C 54 % 69 % 0 % 1017,8 hPa 0,0 l/m 1,6 km/h (1 Bft) 0 min 5,8 km/h (2 Bft)
03.07.2010 05:46 26,5 C 21,5 C 0,0 UV-I 0,0 C 54 % 69 % 0 % 1017,8 hPa 0,0 l/m 1,6 km/h (1 Bft) 0 min 0,0 km/h (0 Bft)
03.07.2010 05:50 26,5 C 21,5 C 0,0 UV-I 0,0 C 54 % 69 % 0 % 1017,9 hPa 0,0 l/m 1,2 km/h (1 Bft) 0 min 0,0 km/h (0 Bft)
03.07.2010 05:52 26,5 C 21,4 C 0,0 UV-I 0,0 C 54 % 69 % 0 % 1017,9 hPa 0,0 l/m 0,8 km/h (0 Bft) 0 min 3,5 km/h (1 Bft)
03.07.2010 05:54 26,5 C 21,5 C 0,0 UV-I 0,0 C 54 % 69 % 0 % 1017,9 hPa 0,0 l/m 0,8 km/h (0 Bft) 0 min 0,0 km/h (0 Bft)
03.07.2010 06:00 26,5 C 21,3 C 0,0 UV-I 0,0 C 54 % 70 % 0 % 1017,9 hPa 0,0 l/m 1,2 km/h (1 Bft) 0 min 6,4 km/h (2 Bft)
03.07.2010 06:06 26,5 C 21,3 C 0,0 UV-I 0,0 C 54 % 70 % 0 % 1017,9 hPa 0,0 l/m 2,0 km/h (1 Bft) 0 min 6,4 km/h (2 Bft)
03.07.2010 06:08 26,5 C 21,2 C 0,0 UV-I 0,0 C 54 % 70 % 0 % 1017,9 hPa 0,0 l/m 2,0 km/h (1 Bft) 0 min 0,0 km/h (0 Bft)
03.07.2010 06:10 26,5 C 21,2 C 0,0 UV-I 0,0 C 54 % 70 % 0 % 1018,1 hPa 0,0 l/m 2,0 km/h (1 Bft) 0 min 0,0 km/h (0 Bft)
03.07.2010 06:12 26,4 C 21,3 C 0,3 UV-I 0,0 C 54 % 70 % 0 % 1018,1 hPa 0,0 l/m 2,0 km/h (1 Bft) 0 min 3,9 km/h (1 Bft)
03.07.2010 06:14 26,4 C 21,2 C 0,3 UV-I 0,0 C 54 % 70 % 0 % 1018,1 hPa 0,0 l/m 0,8 km/h (0 Bft) 0 min 0,0 km/h (0 Bft)
03.07.2010 06:16 26,5 C 21,2 C 0,3 UV-I 0,0 C 54 % 71 % 0 % 1018,1 hPa 0,0 l/m 0,8 km/h (0 Bft) 0 min 4,5 km/h (1 Bft)
03.07.2010 06:18 26,4 C 21,2 C 0,0 UV-I 0,0 C 54 % 71 % 0 % 1018,1 hPa 0,0 l/m 0,8 km/h (0 Bft) 0 min 0,0 km/h (0 Bft)
03.07.2010 06:26 26,4 C 21,3 C 0,0 UV-I 0,0 C 54 % 71 % 0 % 1018,1 hPa 0,0 l/m 0,4 km/h (0 Bft) 0 min 3,2 km/h (1 Bft)
03.07.2010 06:30 26,4 C 21,2 C 0,1 UV-I 0,0 C 54 % 71 % 0 % 1018,5 hPa 0,0 l/m 0,4 km/h (0 Bft) 0 min 0,0 km/h (0 Bft)
03.07.2010 06:32 26,4 C 21,3 C 0,1 UV-I 0,0 C 54 % 72 % 0 % 1018,5 hPa 0,0 l/m 0,4 km/h (0 Bft) 0 min 0,0 km/h (0 Bft)
03.07.2010 06:34 26,4 C 21,3 C 0,1 UV-I 0,0 C 54 % 72 % 0 % 1018,5 hPa 0,0 l/m 0,0 km/h (0 Bft) 0 min 0,0 km/h (0 Bft)
03.07.2010 06:36 26,4 C 21,3 C 0,1 UV-I 0,0 C 54 % 72 % 0 % 1018,5 hPa 0,0 l/m 0,0 km/h (0 Bft) 0 min 0,0 km/h (0 Bft)
03.07.2010 06:38 26,4 C 21,3 C 0,0 UV-I 0,0 C 54 % 72 % 0 % 1018,5 hPa 0,0 l/m 0,0 km/h (0 Bft) 0 min 0,0 km/h (0 Bft)
03.07.2010 06:43 26,4 C 21,3 C 0,4 UV-I 0,0 C 54 % 73 % 0 % 1018,5 hPa 0,0 l/m 0,0 km/h (0 Bft) 0 min 0,0 km/h (0 Bft)
03.07.2010 06:48 26,4 C 21,5 C 0,2 UV-I 0,0 C 54 % 74 % 0 % 1018,5 hPa 0,0 l/m 0,0 km/h (0 Bft) 0 min 0,0 km/h (0 Bft)
03.07.2010 06:53 26,4 C 21,5 C 0,6 UV-I 0,0 C 54 % 75 % 0 % 1018,5 hPa 0,0 l/m 0,4 km/h (0 Bft) 0 min 0,0 km/h (0 Bft)
03.07.2010 06:58 26,4 C 21,7 C 0,8 UV-I 0,0 C 54 % 75 % 0 % 1018,5 hPa 0,0 l/m 0,4 km/h (0 Bft) 0 min 0,0 km/h (0 Bft)
03.07.2010 07:03 26,4 C 21,7 C 1,1 UV-I 0,0 C 55 % 76 % 0 % 1018,5 hPa 0,0 l/m 0,0 km/h (0 Bft) 0 min 0,0 km/h (0 Bft)
03.07.2010 07:08 26,4 C 21,8 C 1,0 UV-I 0,0 C 55 % 75 % 0 % 1018,4 hPa 0,0 l/m 0,0 km/h (0 Bft) 0 min 0,0 km/h (0 Bft)
03.07.2010 07:13 26,4 C 21,9 C 0,6 UV-I 0,0 C 55 % 75 % 0 % 1018,4 hPa 0,0 l/m 0,0 km/h (0 Bft) 0 min 0,0 km/h (0 Bft)
03.07.2010 07:17 26,4 C 22,1 C 0,6 UV-I 0,0 C 55 % 75 % 0 % 1018,4 hPa 0,0 l/m 0,4 km/h (0 Bft) 0 min 0,0 km/h (0 Bft)
03.07.2010 07:18 26,4 C 22,1 C 0,6 UV-I 0,0 C 55 % 75 % 0 % 1018,4 hPa 0,0 l/m 0,4 km/h (0 Bft) 0 min 0,0 km/h (0 Bft)
03.07.2010 07:20 26,4 C 22,0 C 0,6 UV-I 0,0 C 55 % 75 % 0 % 1018,4 hPa 0,0 l/m 0,4 km/h (0 Bft) 0 min 0,0 km/h (0 Bft)
03.07.2010 07:22 26,4 C 22,1 C 1,1 UV-I 0,0 C 55 % 75 % 0 % 1018,4 hPa 0,0 l/m 0,4 km/h (0 Bft) 0 min 3,2 km/h (1 Bft)
03.07.2010 07:24 26,4 C 22,1 C 1,1 UV-I 0,0 C 55 % 75 % 0 % 1018,4 hPa 0,0 l/m 0,4 km/h (0 Bft) 0 min 0,0 km/h (0 Bft)
03.07.2010 07:26 26,4 C 22,1 C 1,1 UV-I 0,0 C 55 % 75 % 0 % 1018,4 hPa 0,0 l/m 0,4 km/h (0 Bft) 0 min 0,0 km/h (0 Bft)
03.07.2010 07:28 26,4 C 22,2 C 1,6 UV-I 0,0 C 55 % 75 % 0 % 1018,4 hPa 0,0 l/m 0,4 km/h (0 Bft) 0 min 0,0 km/h (0 Bft)
03.07.2010 07:30 26,4 C 22,2 C 1,6 UV-I 0,0 C 55 % 75 % 0 % 1018,6 hPa 0,0 l/m 0,4 km/h (0 Bft) 0 min 0,0 km/h (0 Bft)
03.07.2010 07:32 26,4 C 22,2 C 1,8 UV-I 0,1 C 55 % 75 % 3 % 1018,6 hPa 0,0 l/m 0,4 km/h (0 Bft) 0 min 5,8 km/h (2 Bft)
03.07.2010 07:34 26,4 C 22,3 C 1,8 UV-I 0,1 C 55 % 75 % 3 % 1018,6 hPa 0,0 l/m 0,4 km/h (0 Bft) 0 min 0,0 km/h (0 Bft)
03.07.2010 07:36 26,5 C 22,3 C 1,8 UV-I 0,2 C 55 % 74 % 6 % 1018,6 hPa 0,0 l/m 0,4 km/h (0 Bft) 0 min 0,0 km/h (0 Bft)
03.07.2010 07:38 26,4 C 22,4 C 1,7 UV-I 0,1 C 55 % 75 % 3 % 1018,6 hPa 0,0 l/m 0,4 km/h (0 Bft) 0 min 0,0 km/h (0 Bft)
03.07.2010 07:40 26,4 C 22,4 C 1,7 UV-I 0,2 C 55 % 74 % 6 % 1018,6 hPa 0,0 l/m 0,4 km/h (0 Bft) 0 min 0,0 km/h (0 Bft)
03.07.2010 07:42 26,4 C 22,5 C 1,3 UV-I 0,2 C 55 % 74 % 6 % 1018,6 hPa 0,0 l/m 0,4 km/h (0 Bft) 0 min 0,0 km/h (0 Bft)
03.07.2010 07:44 26,5 C 22,5 C 1,3 UV-I 0,3 C 55 % 74 % 9 % 1018,6 hPa 0,0 l/m 0,0 km/h (0 Bft) 0 min 0,0 km/h (0 Bft)
03.07.2010 07:46 26,5 C 22,6 C 1,3 UV-I 0,2 C 55 % 74 % 6 % 1018,6 hPa 0,0 l/m 0,0 km/h (0 Bft) 0 min 0,0 km/h (0 Bft)
03.07.2010 07:48 26,5 C 22,7 C 1,4 UV-I 0,2 C 55 % 74 % 6 % 1018,6 hPa 0,0 l/m 0,0 km/h (0 Bft) 0 min 0,0 km/h (0 Bft)
03.07.2010 07:50 26,5 C 22,7 C 1,4 UV-I 0,2 C 55 % 74 % 6 % 1018,4 hPa 0,0 l/m 0,0 km/h (0 Bft) 0 min 0,0 km/h (0 Bft)
03.07.2010 07:52 26,5 C 22,8 C 1,7 UV-I 0,2 C 55 % 74 % 6 % 1018,4 hPa 0,0 l/m 0,4 km/h (0 Bft) 0 min 4,5 km/h (1 Bft)
03.07.2010 07:54 26,4 C 22,9 C 1,7 UV-I 0,3 C 55 % 74 % 9 % 1018,4 hPa 0,0 l/m 0,4 km/h (0 Bft) 0 min 0,0 km/h (0 Bft)
03.07.2010 07:58 26,5 C 22,9 C 2,1 UV-I 0,4 C 55 % 74 % 11 % 1018,4 hPa 0,0 l/m 0,4 km/h (0 Bft) 0 min 0,0 km/h (0 Bft)
03.07.2010 08:00 26,5 C 23,0 C 2,1 UV-I 0,4 C 55 % 74 % 11 % 1018,4 hPa 0,0 l/m 0,4 km/h (0 Bft) 0 min 0,0 km/h (0 Bft)
03.07.2010 08:02 26,5 C 23,1 C 1,8 UV-I 0,3 C 55 % 74 % 9 % 1018,4 hPa 0,0 l/m 0,8 km/h (0 Bft) 0 min 0,0 km/h (0 Bft)
03.07.2010 08:04 26,5 C 23,1 C 1,8 UV-I 0,3 C 55 % 74 % 9 % 1018,4 hPa 0,0 l/m 0,4 km/h (0 Bft) 0 min 0,0 km/h (0 Bft)
03.07.2010 08:06 26,5 C 23,1 C 1,8 UV-I 0,4 C 55 % 74 % 11 % 1018,4 hPa 0,0 l/m 0,8 km/h (0 Bft) 0 min 0,0 km/h (0 Bft)
03.07.2010 08:08 26,5 C 23,1 C 2,1 UV-I 0,4 C 55 % 73 % 11 % 1018,4 hPa 0,0 l/m 0,8 km/h (0 Bft) 0 min 3,9 km/h (1 Bft)
03.07.2010 08:10 26,5 C 23,1 C 2,1 UV-I 0,4 C 55 % 73 % 11 % 1019,2 hPa 0,0 l/m 0,8 km/h (0 Bft) 0 min 3,9 km/h (1 Bft)
03.07.2010 08:12 26,5 C 23,3 C 2,3 UV-I 1,0 C 55 % 73 % 29 % 1019,2 hPa 0,0 l/m 0,8 km/h (0 Bft) 0 min 0,0 km/h (0 Bft)
03.07.2010 08:14 26,5 C 23,3 C 2,3 UV-I 1,6 C 56 % 73 % 46 % 1019,2 hPa 0,0 l/m 0,4 km/h (0 Bft) 0 min 0,0 km/h (0 Bft)
03.07.2010 08:16 26,5 C 23,3 C 2,3 UV-I 2,3 C 56 % 73 % 66 % 1019,2 hPa 0,0 l/m 0,4 km/h (0 Bft) 0 min 0,0 km/h (0 Bft)
03.07.2010 08:18 26,5 C 23,2 C 2,4 UV-I 2,9 C 56 % 73 % 83 % 1019,2 hPa 0,0 l/m 0,0 km/h (0 Bft) 2 min 0,0 km/h (0 Bft)
03.07.2010 08:20 26,5 C 23,3 C 2,4 UV-I 2,9 C 56 % 72 % 83 % 1019,2 hPa 0,0 l/m 0,0 km/h (0 Bft) 2 min 0,0 km/h (0 Bft)
03.07.2010 08:22 26,5 C 23,4 C 1,6 UV-I 2,9 C 56 % 72 % 83 % 1019,2 hPa 0,0 l/m 0,0 km/h (0 Bft) 2 min 0,0 km/h (0 Bft)
03.07.2010 08:24 26,5 C 23,4 C 1,6 UV-I 3,2 C 56 % 72 % 91 % 1019,2 hPa 0,0 l/m 0,0 km/h (0 Bft) 2 min 0,0 km/h (0 Bft)
03.07.2010 08:26 26,5 C 23,4 C 1,6 UV-I 3,5 C 56 % 72 % 100 % 1019,2 hPa 0,0 l/m 0,4 km/h (0 Bft) 2 min 0,0 km/h (0 Bft)
03.07.2010 08:28 26,5 C 23,4 C 1,7 UV-I 3,7 C 56 % 72 % 100 % 1019,2 hPa 0,0 l/m 0,4 km/h (0 Bft) 2 min 0,0 km/h (0 Bft)
03.07.2010 08:30 26,5 C 23,4 C 1,7 UV-I 3,7 C 56 % 72 % 100 % 1018,7 hPa 0,0 l/m 0,4 km/h (0 Bft) 2 min 0,0 km/h (0 Bft)
03.07.2010 08:32 26,5 C 23,6 C 2,4 UV-I 3,9 C 56 % 72 % 100 % 1018,7 hPa 0,0 l/m 0,4 km/h (0 Bft) 2 min 0,0 km/h (0 Bft)
03.07.2010 08:34 26,5 C 23,7 C 2,4 UV-I 4,2 C 56 % 72 % 100 % 1018,7 hPa 0,0 l/m 0,8 km/h (0 Bft) 2 min 0,0 km/h (0 Bft)
03.07.2010 08:36 26,5 C 23,7 C 2,4 UV-I 4,4 C 56 % 72 % 100 % 1018,7 hPa 0,0 l/m 1,6 km/h (1 Bft) 2 min 0,0 km/h (0 Bft)
03.07.2010 08:38 26,5 C 23,7 C 2,8 UV-I 4,6 C 56 % 72 % 100 % 1018,7 hPa 0,0 l/m 1,2 km/h (1 Bft) 2 min 0,0 km/h (0 Bft)
03.07.2010 08:40 26,5 C 23,9 C 2,8 UV-I 4,7 C 56 % 72 % 100 % 1018,7 hPa 0,0 l/m 1,2 km/h (1 Bft) 2 min 5,1 km/h (1 Bft)
03.07.2010 08:42 26,6 C 23,9 C 3,2 UV-I 4,9 C 56 % 72 % 100 % 1018,7 hPa 0,0 l/m 1,2 km/h (1 Bft) 2 min 4,2 km/h (1 Bft)
03.07.2010 08:44 26,5 C 24,1 C 3,2 UV-I 4,9 C 56 % 71 % 100 % 1018,7 hPa 0,0 l/m 1,6 km/h (1 Bft) 2 min 5,5 km/h (1 Bft)
03.07.2010 08:46 26,6 C 24,1 C 3,2 UV-I 4,9 C 56 % 71 % 100 % 1018,7 hPa 0,0 l/m 1,2 km/h (1 Bft) 2 min 4,2 km/h (1 Bft)
03.07.2010 08:48 26,6 C 24,2 C 3,6 UV-I 4,8 C 56 % 70 % 100 % 1018,7 hPa 0,0 l/m 2,4 km/h (1 Bft) 2 min 10,0 km/h (2 Bft)
03.07.2010 08:50 26,6 C 24,2 C 3,6 UV-I 4,8 C 56 % 70 % 100 % 1018,8 hPa 0,0 l/m 2,4 km/h (1 Bft) 2 min 10,0 km/h (2 Bft)
03.07.2010 08:52 26,6 C 24,3 C 3,9 UV-I 4,7 C 56 % 71 % 100 % 1018,8 hPa 0,0 l/m 2,4 km/h (1 Bft) 2 min 0,0 km/h (0 Bft)
03.07.2010 08:54 26,6 C 24,3 C 3,9 UV-I 4,6 C 56 % 70 % 100 % 1018,8 hPa 0,0 l/m 2,8 km/h (1 Bft) 2 min 5,5 km/h (1 Bft)
03.07.2010 08:56 26,6 C 24,4 C 3,9 UV-I 4,5 C 56 % 70 % 100 % 1018,8 hPa 0,0 l/m 3,2 km/h (1 Bft) 2 min 7,4 km/h (2 Bft)
03.07.2010 08:58 26,6 C 24,4 C 4,6 UV-I 4,6 C 56 % 69 % 100 % 1018,8 hPa 0,0 l/m 3,2 km/h (1 Bft) 2 min 5,8 km/h (2 Bft)
03.07.2010 09:00 26,6 C 24,4 C 4,6 UV-I 4,6 C 56 % 69 % 100 % 1018,8 hPa 0,0 l/m 3,2 km/h (1 Bft) 2 min 3,2 km/h (1 Bft)
03.07.2010 09:02 26,6 C 24,5 C 5,2 UV-I 4,6 C 56 % 69 % 100 % 1018,8 hPa 0,0 l/m 3,2 km/h (1 Bft) 2 min 0,0 km/h (0 Bft)
03.07.2010 09:04 26,6 C 24,5 C 5,2 UV-I 4,7 C 56 % 69 % 100 % 1018,8 hPa 0,0 l/m 2,8 km/h (1 Bft) 2 min 3,2 km/h (1 Bft)
03.07.2010 09:06 26,6 C 24,6 C 5,2 UV-I 4,9 C 56 % 69 % 100 % 1018,8 hPa 0,0 l/m 2,4 km/h (1 Bft) 2 min 0,0 km/h (0 Bft)
03.07.2010 09:08 26,6 C 24,7 C 5,4 UV-I 4,9 C 56 % 69 % 100 % 1018,8 hPa 0,0 l/m 1,6 km/h (1 Bft) 2 min 3,2 km/h (1 Bft)
03.07.2010 09:10 26,6 C 24,7 C 5,4 UV-I 4,9 C 56 % 69 % 100 % 1018,9 hPa 0,0 l/m 1,6 km/h (1 Bft) 2 min 3,2 km/h (1 Bft)
03.07.2010 09:12 26,6 C 24,8 C 5,0 UV-I 4,6 C 56 % 69 % 100 % 1018,9 hPa 0,0 l/m 0,8 km/h (0 Bft) 2 min 0,0 km/h (0 Bft)
03.07.2010 09:14 26,6 C 24,9 C 5,0 UV-I 4,4 C 56 % 69 % 100 % 1018,9 hPa 0,0 l/m 0,8 km/h (0 Bft) 2 min 0,0 km/h (0 Bft)
03.07.2010 09:16 26,6 C 25,0 C 5,0 UV-I 4,2 C 56 % 68 % 100 % 1018,9 hPa 0,0 l/m 0,8 km/h (0 Bft) 2 min 5,8 km/h (2 Bft)
03.07.2010 09:18 26,6 C 25,1 C 5,7 UV-I 4,1 C 56 % 68 % 100 % 1018,9 hPa 0,0 l/m 1,2 km/h (1 Bft) 2 min 0,0 km/h (0 Bft)
03.07.2010 09:20 26,6 C 25,2 C 5,7 UV-I 4,0 C 56 % 68 % 100 % 1018,9 hPa 0,0 l/m 1,2 km/h (1 Bft) 2 min 0,0 km/h (0 Bft)
03.07.2010 09:22 26,6 C 25,2 C 6,8 UV-I 4,3 C 56 % 68 % 100 % 1018,9 hPa 0,0 l/m 1,6 km/h (1 Bft) 2 min 6,1 km/h (2 Bft)
03.07.2010 09:24 26,6 C 25,3 C 6,8 UV-I 4,3 C 56 % 68 % 100 % 1018,9 hPa 0,0 l/m 2,4 km/h (1 Bft) 2 min 4,2 km/h (1 Bft)
03.07.2010 09:26 26,6 C 25,5 C 6,8 UV-I 4,3 C 56 % 68 % 100 % 1018,9 hPa 0,0 l/m 3,6 km/h (1 Bft) 2 min 8,4 km/h (2 Bft)
03.07.2010 09:28 26,6 C 25,6 C 8,1 UV-I 4,4 C 56 % 68 % 100 % 1018,9 hPa 0,0 l/m 3,2 km/h (1 Bft) 2 min 0,0 km/h (0 Bft)
03.07.2010 09:30 26,6 C 25,6 C 8,1 UV-I 4,4 C 56 % 68 % 100 % 1018,9 hPa 0,0 l/m 3,2 km/h (1 Bft) 2 min 10,6 km/h (2 Bft)
03.07.2010 09:32 26,6 C 25,7 C 8,4 UV-I 5,0 C 56 % 67 % 100 % 1018,9 hPa 0,0 l/m 2,8 km/h (1 Bft) 2 min 3,9 km/h (1 Bft)
03.07.2010 09:34 26,6 C 25,9 C 8,4 UV-I 4,9 C 56 % 67 % 100 % 1018,9 hPa 0,0 l/m 2,0 km/h (1 Bft) 2 min 0,0 km/h (0 Bft)
03.07.2010 09:36 26,6 C 25,9 C 8,4 UV-I 5,0 C 56 % 66 % 100 % 1018,9 hPa 0,0 l/m 1,6 km/h (1 Bft) 2 min 0,0 km/h (0 Bft)
03.07.2010 09:38 26,7 C 26,1 C 8,9 UV-I 5,1 C 56 % 66 % 100 % 1018,9 hPa 0,0 l/m 0,8 km/h (0 Bft) 2 min 0,0 km/h (0 Bft)
03.07.2010 09:40 26,6 C 26,2 C 8,9 UV-I 5,7 C 56 % 66 % 100 % 1018,9 hPa 0,0 l/m 0,8 km/h (0 Bft) 2 min 0,0 km/h (0 Bft)
03.07.2010 09:42 26,6 C 26,2 C 10,5 UV-I 6,1 C 56 % 66 % 100 % 1018,9 hPa 0,0 l/m 0,8 km/h (0 Bft) 2 min 3,9 km/h (1 Bft)
03.07.2010 09:44 26,6 C 26,4 C 10,5 UV-I 6,2 C 56 % 65 % 100 % 1018,9 hPa 0,0 l/m 1,2 km/h (1 Bft) 2 min 6,1 km/h (2 Bft)
03.07.2010 09:46 26,6 C 26,5 C 10,5 UV-I 6,0 C 56 % 64 % 100 % 1018,9 hPa 0,0 l/m 1,6 km/h (1 Bft) 2 min 8,0 km/h (2 Bft)
03.07.2010 09:48 26,7 C 26,5 C 8,7 UV-I 5,7 C 56 % 64 % 100 % 1018,9 hPa 0,0 l/m 2,0 km/h (1 Bft) 2 min 0,0 km/h (0 Bft)
03.07.2010 09:50 26,7 C 26,5 C 8,7 UV-I 5,7 C 56 % 64 % 100 % 1019,1 hPa 0,0 l/m 2,0 km/h (1 Bft) 2 min 0,0 km/h (0 Bft)
03.07.2010 09:52 26,7 C 26,7 C 9,7 UV-I 5,2 C 56 % 64 % 100 % 1019,1 hPa 0,0 l/m 2,4 km/h (1 Bft) 2 min 3,2 km/h (1 Bft)
03.07.2010 09:54 26,7 C 26,9 C 9,7 UV-I 5,2 C 56 % 63 % 100 % 1019,1 hPa 0,0 l/m 2,0 km/h (1 Bft) 2 min 3,5 km/h (1 Bft)
03.07.2010 09:56 26,7 C 26,9 C 9,7 UV-I 5,1 C 56 % 63 % 100 % 1019,1 hPa 0,0 l/m 2,0 km/h (1 Bft) 2 min 0,0 km/h (0 Bft)
03.07.2010 09:58 26,7 C 27,0 C 8,8 UV-I 4,9 C 56 % 63 % 100 % 1019,1 hPa 0,0 l/m 1,2 km/h (1 Bft) 2 min 0,0 km/h (0 Bft)
03.07.2010 10:00 26,7 C 27,1 C 8,8 UV-I 4,9 C 56 % 63 % 100 % 1019,1 hPa 0,0 l/m 1,2 km/h (1 Bft) 2 min 4,2 km/h (1 Bft)
03.07.2010 10:02 26,7 C 27,1 C 9,7 UV-I 5,2 C 56 % 62 % 100 % 1019,1 hPa 0,0 l/m 1,6 km/h (1 Bft) 2 min 0,0 km/h (0 Bft)
03.07.2010 10:04 26,7 C 27,1 C 9,7 UV-I 5,2 C 56 % 61 % 100 % 1019,1 hPa 0,0 l/m 1,2 km/h (1 Bft) 2 min 0,0 km/h (0 Bft)
03.07.2010 10:06 26,7 C 27,3 C 9,7 UV-I 4,9 C 56 % 61 % 100 % 1019,1 hPa 0,0 l/m 1,2 km/h (1 Bft) 2 min 7,4 km/h (2 Bft)
03.07.2010 10:10 26,7 C 27,2 C 9,6 UV-I 5,1 C 56 % 61 % 100 % 1018,9 hPa 0,0 l/m 1,2 km/h (1 Bft) 2 min 0,0 km/h (0 Bft)
03.07.2010 10:12 26,7 C 27,5 C 11,0 UV-I 5,2 C 56 % 60 % 100 % 1018,9 hPa 0,0 l/m 1,6 km/h (1 Bft) 2 min 3,5 km/h (1 Bft)
03.07.2010 10:14 26,8 C 27,4 C 11,0 UV-I 5,3 C 56 % 60 % 100 % 1018,9 hPa 0,0 l/m 2,0 km/h (1 Bft) 2 min 3,2 km/h (1 Bft)
03.07.2010 10:16 26,8 C 27,5 C 11,0 UV-I 5,2 C 56 % 60 % 100 % 1018,9 hPa 0,0 l/m 2,0 km/h (1 Bft) 2 min 5,8 km/h (2 Bft)
03.07.2010 10:18 26,8 C 27,5 C 8,2 UV-I 4,7 C 56 % 60 % 100 % 1018,9 hPa 0,0 l/m 2,0 km/h (1 Bft) 2 min 0,0 km/h (0 Bft)
03.07.2010 10:20 26,8 C 27,6 C 8,2 UV-I 4,6 C 56 % 60 % 100 % 1018,9 hPa 0,0 l/m 2,0 km/h (1 Bft) 2 min 0,0 km/h (0 Bft)
03.07.2010 10:22 26,8 C 27,6 C 9,6 UV-I 4,8 C 56 % 60 % 100 % 1018,9 hPa 0,0 l/m 1,6 km/h (1 Bft) 2 min 0,0 km/h (0 Bft)
03.07.2010 10:24 26,8 C 27,6 C 9,6 UV-I 4,6 C 56 % 60 % 100 % 1018,9 hPa 0,0 l/m 1,6 km/h (1 Bft) 2 min 4,5 km/h (1 Bft)
03.07.2010 10:26 26,8 C 27,7 C 9,6 UV-I 4,4 C 56 % 60 % 100 % 1018,9 hPa 0,0 l/m 2,0 km/h (1 Bft) 2 min 5,8 km/h (2 Bft)
03.07.2010 10:28 26,8 C 27,7 C 8,8 UV-I 4,2 C 56 % 61 % 100 % 1018,9 hPa 0,0 l/m 1,6 km/h (1 Bft) 2 min 0,0 km/h (0 Bft)
03.07.2010 10:30 26,8 C 27,7 C 8,8 UV-I 4,2 C 56 % 61 % 100 % 1019,1 hPa 0,0 l/m 1,6 km/h (1 Bft) 2 min 0,0 km/h (0 Bft)
03.07.2010 10:32 26,8 C 27,7 C 9,6 UV-I 4,5 C 56 % 60 % 100 % 1019,1 hPa 0,0 l/m 1,6 km/h (1 Bft) 2 min 0,0 km/h (0 Bft)
03.07.2010 10:34 26,8 C 27,7 C 9,6 UV-I 4,7 C 56 % 60 % 100 % 1019,1 hPa 0,0 l/m 2,0 km/h (1 Bft) 2 min 6,1 km/h (2 Bft)
03.07.2010 10:36 26,8 C 27,7 C 9,6 UV-I 4,7 C 56 % 60 % 100 % 1019,1 hPa 0,0 l/m 1,6 km/h (1 Bft) 2 min 0,0 km/h (0 Bft)
03.07.2010 10:38 26,8 C 27,7 C 9,1 UV-I 4,7 C 56 % 60 % 100 % 1019,1 hPa 0,0 l/m 1,2 km/h (1 Bft) 2 min 0,0 km/h (0 Bft)
03.07.2010 10:40 26,8 C 27,7 C 9,1 UV-I 4,8 C 56 % 61 % 100 % 1019,1 hPa 0,0 l/m 2,0 km/h (1 Bft) 2 min 0,0 km/h (0 Bft)
03.07.2010 10:42 26,8 C 27,6 C 10,3 UV-I 5,1 C 56 % 61 % 100 % 1019,1 hPa 0,0 l/m 2,8 km/h (1 Bft) 2 min 6,4 km/h (2 Bft)
03.07.2010 10:46 26,8 C 27,8 C 10,3 UV-I 5,3 C 56 % 61 % 100 % 1019,1 hPa 0,0 l/m 3,2 km/h (1 Bft) 2 min 7,4 km/h (2 Bft)
03.07.2010 10:48 26,8 C 27,9 C 11,3 UV-I 5,3 C 56 % 61 % 100 % 1019,1 hPa 0,0 l/m 3,6 km/h (1 Bft) 2 min 5,1 km/h (1 Bft)
03.07.2010 10:50 26,8 C 27,9 C 11,3 UV-I 5,3 C 56 % 61 % 100 % 1019,1 hPa 0,0 l/m 3,6 km/h (1 Bft) 2 min 5,1 km/h (1 Bft)
03.07.2010 10:52 26,9 C 28,1 C 12,0 UV-I 5,7 C 56 % 61 % 100 % 1019,1 hPa 0,0 l/m 2,4 km/h (1 Bft) 2 min 3,9 km/h (1 Bft)
03.07.2010 10:54 26,9 C 28,1 C 12,0 UV-I 6,0 C 56 % 60 % 100 % 1019,1 hPa 0,0 l/m 2,0 km/h (1 Bft) 2 min 5,1 km/h (1 Bft)
03.07.2010 10:56 26,9 C 28,3 C 12,0 UV-I 6,0 C 56 % 60 % 100 % 1019,1 hPa 0,0 l/m 2,4 km/h (1 Bft) 2 min 4,2 km/h (1 Bft)
03.07.2010 10:58 26,9 C 28,3 C 12,1 UV-I 6,3 C 56 % 59 % 100 % 1019,1 hPa 0,0 l/m 2,4 km/h (1 Bft) 2 min 0,0 km/h (0 Bft)
03.07.2010 11:02 26,9 C 28,5 C 12,0 UV-I 6,0 C 56 % 60 % 100 % 1019,1 hPa 0,0 l/m 3,6 km/h (1 Bft) 2 min 3,5 km/h (1 Bft)
03.07.2010 11:04 27,0 C 28,5 C 12,0 UV-I 6,1 C 56 % 59 % 100 % 1019,1 hPa 0,0 l/m 3,2 km/h (1 Bft) 2 min 0,0 km/h (0 Bft)
03.07.2010 11:06 26,9 C 28,7 C 12,0 UV-I 6,1 C 56 % 59 % 100 % 1019,1 hPa 0,0 l/m 2,8 km/h (1 Bft) 2 min 6,1 km/h (2 Bft)
03.07.2010 11:10 26,9 C 28,7 C 12,2 UV-I 6,3 C 56 % 59 % 100 % 1019,3 hPa 0,0 l/m 2,8 km/h (1 Bft) 2 min 20,0 km/h (4 Bft)
03.07.2010 11:12 27,0 C 28,7 C 12,0 UV-I 6,3 C 56 % 58 % 100 % 1019,3 hPa 0,0 l/m 3,6 km/h (1 Bft) 2 min 10,6 km/h (2 Bft)
03.07.2010 11:14 27,0 C 28,8 C 12,0 UV-I 6,2 C 56 % 58 % 100 % 1019,3 hPa 0,0 l/m 4,0 km/h (1 Bft) 2 min 5,5 km/h (1 Bft)
03.07.2010 11:16 27,0 C 28,9 C 12,0 UV-I 6,1 C 56 % 58 % 100 % 1019,3 hPa 0,0 l/m 4,4 km/h (1 Bft) 2 min 8,4 km/h (2 Bft)
03.07.2010 11:18 27,0 C 28,9 C 12,1 UV-I 6,1 C 56 % 57 % 100 % 1019,3 hPa 0,0 l/m 5,2 km/h (1 Bft) 2 min 7,1 km/h (2 Bft)
03.07.2010 11:20 27,0 C 29,1 C 12,1 UV-I 6,0 C 56 % 57 % 100 % 1019,3 hPa 0,0 l/m 4,8 km/h (1 Bft) 2 min 3,2 km/h (1 Bft)
03.07.2010 11:22 27,0 C 29,1 C 12,6 UV-I 6,2 C 56 % 56 % 100 % 1019,3 hPa 0,0 l/m 4,8 km/h (1 Bft) 2 min 4,2 km/h (1 Bft)
03.07.2010 11:24 27,0 C 29,2 C 12,6 UV-I 6,1 C 56 % 56 % 100 % 1019,3 hPa 0,0 l/m 4,4 km/h (1 Bft) 2 min 3,2 km/h (1 Bft)
03.07.2010 11:26 27,0 C 29,3 C 12,6 UV-I 6,1 C 56 % 56 % 100 % 1019,3 hPa 0,0 l/m 4,4 km/h (1 Bft) 2 min 4,2 km/h (1 Bft)
03.07.2010 11:30 27,0 C 29,3 C 12,7 UV-I 6,3 C 56 % 56 % 100 % 1019,7 hPa 0,0 l/m 4,8 km/h (1 Bft) 2 min 3,9 km/h (1 Bft)
03.07.2010 11:32 27,0 C 29,4 C 12,9 UV-I 6,5 C 56 % 56 % 100 % 1019,7 hPa 0,0 l/m 3,2 km/h (1 Bft) 2 min 3,2 km/h (1 Bft)
03.07.2010 11:34 27,0 C 29,5 C 12,9 UV-I 6,5 C 56 % 56 % 100 % 1019,7 hPa 0,0 l/m 2,4 km/h (1 Bft) 2 min 0,0 km/h (0 Bft)
03.07.2010 11:36 27,0 C 29,6 C 12,9 UV-I 6,6 C 56 % 55 % 100 % 1019,7 hPa 0,0 l/m 2,8 km/h (1 Bft) 2 min 10,6 km/h (2 Bft)
03.07.2010 11:38 27,1 C 29,7 C 12,0 UV-I 6,3 C 56 % 55 % 100 % 1019,7 hPa 0,0 l/m 3,2 km/h (1 Bft) 2 min 5,5 km/h (1 Bft)
03.07.2010 11:40 27,0 C 29,7 C 12,0 UV-I 6,1 C 56 % 55 % 100 % 1019,7 hPa 0,0 l/m 2,8 km/h (1 Bft) 2 min 0,0 km/h (0 Bft)
03.07.2010 11:42 27,1 C 29,8 C 11,2 UV-I 6,0 C 56 % 55 % 100 % 1019,7 hPa 0,0 l/m 3,2 km/h (1 Bft) 2 min 6,1 km/h (2 Bft)
03.07.2010 11:44 27,1 C 29,7 C 11,2 UV-I 5,9 C 56 % 55 % 100 % 1019,7 hPa 0,0 l/m 4,4 km/h (1 Bft) 2 min 7,1 km/h (2 Bft)
03.07.2010 11:46 27,1 C 29,7 C 11,2 UV-I 5,6 C 56 % 55 % 100 % 1019,7 hPa 0,0 l/m 5,2 km/h (1 Bft) 2 min 7,4 km/h (2 Bft)
03.07.2010 11:48 27,1 C 29,7 C 10,9 UV-I 5,4 C 56 % 55 % 100 % 1019,7 hPa 0,0 l/m 4,4 km/h (1 Bft) 2 min 4,8 km/h (1 Bft)
03.07.2010 11:50 27,1 C 29,7 C 10,9 UV-I 5,4 C 56 % 55 % 100 % 1019,4 hPa 0,0 l/m 4,4 km/h (1 Bft) 2 min 4,8 km/h (1 Bft)
03.07.2010 11:52 27,1 C 29,8 C 10,9 UV-I 5,5 C 56 % 55 % 100 % 1019,4 hPa 0,0 l/m 4,4 km/h (1 Bft) 2 min 0,0 km/h (0 Bft)
03.07.2010 11:54 27,1 C 29,9 C 10,9 UV-I 5,5 C 56 % 56 % 100 % 1019,4 hPa 0,0 l/m 3,6 km/h (1 Bft) 2 min 0,0 km/h (0 Bft)
03.07.2010 11:56 27,1 C 29,9 C 10,9 UV-I 5,8 C 56 % 55 % 100 % 1019,4 hPa 0,0 l/m 2,8 km/h (1 Bft) 2 min 4,8 km/h (1 Bft)
03.07.2010 11:58 27,2 C 29,9 C 11,4 UV-I 6,1 C 56 % 54 % 100 % 1019,4 hPa 0,0 l/m 2,8 km/h (1 Bft) 2 min 6,1 km/h (2 Bft)
03.07.2010 12:00 27,2 C 29,9 C 11,4 UV-I 6,2 C 56 % 54 % 100 % 1019,4 hPa 0,0 l/m 3,2 km/h (1 Bft) 2 min 6,8 km/h (2 Bft)
03.07.2010 12:04 27,2 C 29,9 C 10,8 UV-I 6,2 C 56 % 54 % 100 % 1019,4 hPa 0,0 l/m 4,0 km/h (1 Bft) 2 min 11,6 km/h (2 Bft)
03.07.2010 12:06 27,2 C 30,1 C 10,8 UV-I 6,0 C 56 % 54 % 100 % 1019,4 hPa 0,0 l/m 6,0 km/h (2 Bft) 2 min 6,4 km/h (2 Bft)
03.07.2010 12:08 27,2 C 30,1 C 10,8 UV-I 6,0 C 56 % 54 % 100 % 1019,4 hPa 0,0 l/m 6,0 km/h (2 Bft) 2 min 0,0 km/h (0 Bft)
03.07.2010 12:10 27,2 C 30,1 C 10,8 UV-I 6,0 C 56 % 54 % 100 % 1019,7 hPa 0,0 l/m 6,0 km/h (2 Bft) 2 min 0,0 km/h (0 Bft)
03.07.2010 12:12 27,2 C 30,3 C 10,4 UV-I 6,2 C 56 % 53 % 100 % 1019,7 hPa 0,0 l/m 4,8 km/h (1 Bft) 2 min 8,7 km/h (2 Bft)
03.07.2010 12:14 27,2 C 30,3 C 10,4 UV-I 6,2 C 56 % 53 % 100 % 1019,7 hPa 0,0 l/m 4,4 km/h (1 Bft) 2 min 6,8 km/h (2 Bft)
03.07.2010 12:16 27,2 C 30,4 C 10,4 UV-I 6,2 C 56 % 53 % 100 % 1019,7 hPa 0,0 l/m 4,4 km/h (1 Bft) 2 min 10,3 km/h (2 Bft)
03.07.2010 12:18 27,2 C 30,4 C 10,8 UV-I 6,2 C 56 % 52 % 100 % 1019,7 hPa 0,0 l/m 5,2 km/h (1 Bft) 2 min 16,1 km/h (3 Bft)
03.07.2010 12:20 27,2 C 30,4 C 10,8 UV-I 6,1 C 56 % 53 % 100 % 1019,7 hPa 0,0 l/m 5,6 km/h (1 Bft) 2 min 0,0 km/h (0 Bft)
03.07.2010 12:22 27,2 C 30,4 C 10,5 UV-I 6,1 C 56 % 53 % 100 % 1019,7 hPa 0,0 l/m 5,6 km/h (1 Bft) 2 min 5,5 km/h (1 Bft)
03.07.2010 12:24 27,2 C 30,3 C 10,5 UV-I 6,2 C 56 % 53 % 100 % 1019,7 hPa 0,0 l/m 5,2 km/h (1 Bft) 2 min 0,0 km/h (0 Bft)
03.07.2010 12:26 27,2 C 30,2 C 10,5 UV-I 6,4 C 56 % 52 % 100 % 1019,7 hPa 0,0 l/m 5,2 km/h (1 Bft) 2 min 0,0 km/h (0 Bft)
03.07.2010 12:28 27,3 C 30,3 C 10,5 UV-I 6,5 C 56 % 52 % 100 % 1019,7 hPa 0,0 l/m 4,8 km/h (1 Bft) 2 min 7,4 km/h (2 Bft)
03.07.2010 12:30 27,3 C 30,3 C 10,5 UV-I 6,5 C 56 % 52 % 100 % 1019,5 hPa 0,0 l/m 4,8 km/h (1 Bft) 2 min 7,4 km/h (2 Bft)
03.07.2010 12:34 27,2 C 30,5 C 9,8 UV-I 6,0 C 56 % 52 % 100 % 1019,5 hPa 0,0 l/m 4,4 km/h (1 Bft) 2 min 8,7 km/h (2 Bft)
03.07.2010 12:36 27,2 C 30,6 C 9,8 UV-I 5,8 C 56 % 52 % 100 % 1019,5 hPa 0,0 l/m 3,6 km/h (1 Bft) 2 min 0,0 km/h (0 Bft)
03.07.2010 12:40 27,4 C 30,7 C 10,1 UV-I 6,1 C 56 % 51 % 100 % 1019,5 hPa 0,0 l/m 3,2 km/h (1 Bft) 2 min 9,7 km/h (2 Bft)
03.07.2010 12:42 27,4 C 30,7 C 9,1 UV-I 6,0 C 55 % 51 % 100 % 1019,5 hPa 0,0 l/m 3,6 km/h (1 Bft) 2 min 0,0 km/h (0 Bft)
03.07.2010 12:44 27,4 C 30,8 C 9,1 UV-I 5,7 C 55 % 52 % 100 % 1019,5 hPa 0,0 l/m 2,8 km/h (1 Bft) 2 min 4,2 km/h (1 Bft)
03.07.2010 12:46 27,4 C 30,9 C 9,1 UV-I 5,4 C 55 % 52 % 100 % 1019,5 hPa 0,0 l/m 2,4 km/h (1 Bft) 2 min 0,0 km/h (0 Bft)
03.07.2010 12:48 27,4 C 31,0 C 8,8 UV-I 5,3 C 55 % 52 % 100 % 1019,5 hPa 0,0 l/m 3,2 km/h (1 Bft) 2 min 5,5 km/h (1 Bft)
03.07.2010 12:50 27,4 C 31,0 C 8,8 UV-I 5,3 C 55 % 52 % 100 % 1019,3 hPa 0,0 l/m 3,2 km/h (1 Bft) 2 min 5,5 km/h (1 Bft)
03.07.2010 12:52 27,4 C 31,1 C 10,2 UV-I 5,3 C 55 % 51 % 100 % 1019,3 hPa 0,0 l/m 2,8 km/h (1 Bft) 2 min 4,8 km/h (1 Bft)
03.07.2010 12:54 27,5 C 31,2 C 10,2 UV-I 5,5 C 55 % 51 % 100 % 1019,3 hPa 0,0 l/m 2,8 km/h (1 Bft) 2 min 3,2 km/h (1 Bft)
03.07.2010 12:56 27,5 C 31,3 C 10,2 UV-I 5,6 C 55 % 50 % 100 % 1019,3 hPa 0,0 l/m 3,6 km/h (1 Bft) 2 min 5,5 km/h (1 Bft)
03.07.2010 12:58 27,5 C 31,3 C 10,8 UV-I 5,7 C 55 % 50 % 100 % 1019,3 hPa 0,0 l/m 4,8 km/h (1 Bft) 2 min 7,4 km/h (2 Bft)
03.07.2010 13:02 27,5 C 31,2 C 10,7 UV-I 5,7 C 56 % 50 % 100 % 1019,3 hPa 0,0 l/m 5,2 km/h (1 Bft) 2 min 4,8 km/h (1 Bft)
03.07.2010 13:04 27,5 C 31,2 C 10,7 UV-I 5,7 C 56 % 50 % 100 % 1019,3 hPa 0,0 l/m 5,2 km/h (1 Bft) 2 min 5,8 km/h (2 Bft)
03.07.2010 13:06 27,6 C 31,3 C 10,7 UV-I 5,5 C 56 % 50 % 100 % 1019,3 hPa 0,0 l/m 5,2 km/h (1 Bft) 2 min 0,0 km/h (0 Bft)
03.07.2010 13:08 27,6 C 31,2 C 10,0 UV-I 5,6 C 56 % 50 % 100 % 1019,3 hPa 0,0 l/m 4,4 km/h (1 Bft) 2 min 0,0 km/h (0 Bft)
03.07.2010 13:10 27,6 C 31,2 C 10,0 UV-I 5,6 C 56 % 50 % 100 % 1019,4 hPa 0,0 l/m 4,4 km/h (1 Bft) 2 min 0,0 km/h (0 Bft)
03.07.2010 13:12 27,6 C 31,4 C 10,3 UV-I 5,5 C 56 % 50 % 100 % 1019,4 hPa 0,0 l/m 3,2 km/h (1 Bft) 2 min 5,8 km/h (2 Bft)
03.07.2010 13:14 27,6 C 31,5 C 10,3 UV-I 5,4 C 56 % 50 % 100 % 1019,4 hPa 0,0 l/m 3,2 km/h (1 Bft) 2 min 4,5 km/h (1 Bft)
03.07.2010 13:16 27,6 C 31,6 C 10,3 UV-I 5,4 C 56 % 50 % 100 % 1019,4 hPa 0,0 l/m 2,4 km/h (1 Bft) 2 min 5,5 km/h (1 Bft)
03.07.2010 13:18 27,6 C 31,7 C 10,8 UV-I 5,5 C 56 % 49 % 100 % 1019,4 hPa 0,0 l/m 4,0 km/h (1 Bft) 2 min 9,3 km/h (2 Bft)
03.07.2010 13:20 27,7 C 31,6 C 10,8 UV-I 5,6 C 56 % 50 % 100 % 1019,4 hPa 0,0 l/m 4,4 km/h (1 Bft) 2 min 5,5 km/h (1 Bft)
03.07.2010 13:22 27,7 C 31,7 C 10,3 UV-I 5,5 C 56 % 50 % 100 % 1019,4 hPa 0,0 l/m 4,0 km/h (1 Bft) 2 min 0,0 km/h (0 Bft)
03.07.2010 13:26 27,7 C 31,7 C 10,3 UV-I 5,6 C 55 % 50 % 100 % 1019,4 hPa 0,0 l/m 4,0 km/h (1 Bft) 2 min 3,5 km/h (1 Bft)
03.07.2010 13:28 27,7 C 31,9 C 9,9 UV-I 5,6 C 55 % 48 % 100 % 1019,4 hPa 0,0 l/m 3,6 km/h (1 Bft) 2 min 3,9 km/h (1 Bft)
03.07.2010 13:30 27,7 C 31,9 C 9,9 UV-I 5,6 C 55 % 48 % 100 % 1019,5 hPa 0,0 l/m 3,6 km/h (1 Bft) 2 min 3,9 km/h (1 Bft)
03.07.2010 13:32 27,8 C 31,7 C 9,2 UV-I 5,3 C 55 % 48 % 100 % 1019,5 hPa 0,0 l/m 2,8 km/h (1 Bft) 2 min 8,0 km/h (2 Bft)
03.07.2010 13:34 27,8 C 31,7 C 9,2 UV-I 5,1 C 55 % 48 % 100 % 1019,5 hPa 0,0 l/m 3,6 km/h (1 Bft) 2 min 7,1 km/h (2 Bft)
03.07.2010 13:36 27,8 C 31,6 C 9,2 UV-I 4,9 C 55 % 49 % 100 % 1019,5 hPa 0,0 l/m 4,4 km/h (1 Bft) 2 min 4,2 km/h (1 Bft)
03.07.2010 13:38 27,8 C 31,6 C 9,5 UV-I 4,9 C 55 % 49 % 100 % 1019,5 hPa 0,0 l/m 4,8 km/h (1 Bft) 2 min 4,8 km/h (1 Bft)
03.07.2010 13:40 27,9 C 31,6 C 9,5 UV-I 4,8 C 55 % 49 % 100 % 1019,5 hPa 0,0 l/m 5,2 km/h (1 Bft) 2 min 9,7 km/h (2 Bft)
03.07.2010 13:42 27,9 C 31,7 C 9,4 UV-I 4,7 C 55 % 48 % 100 % 1019,5 hPa 0,0 l/m 6,0 km/h (2 Bft) 2 min 7,1 km/h (2 Bft)
03.07.2010 13:44 27,9 C 31,7 C 9,4 UV-I 4,6 C 55 % 49 % 100 % 1019,5 hPa 0,0 l/m 6,0 km/h (2 Bft) 2 min 0,0 km/h (0 Bft)
03.07.2010 13:46 27,9 C 31,7 C 9,4 UV-I 4,5 C 55 % 49 % 100 % 1019,5 hPa 0,0 l/m 4,8 km/h (1 Bft) 2 min 0,0 km/h (0 Bft)
03.07.2010 13:50 28,0 C 31,9 C 9,9 UV-I 4,5 C 55 % 48 % 100 % 1019,5 hPa 0,0 l/m 4,4 km/h (1 Bft) 2 min 4,2 km/h (1 Bft)
03.07.2010 13:52 28,0 C 31,9 C 9,5 UV-I 4,9 C 55 % 48 % 100 % 1019,5 hPa 0,0 l/m 2,4 km/h (1 Bft) 2 min 11,6 km/h (2 Bft)
03.07.2010 13:54 28,0 C 31,9 C 9,5 UV-I 4,8 C 55 % 48 % 100 % 1019,5 hPa 0,0 l/m 2,0 km/h (1 Bft) 2 min 4,2 km/h (1 Bft)
03.07.2010 13:56 28,0 C 31,9 C 9,5 UV-I 4,6 C 55 % 48 % 100 % 1019,5 hPa 0,0 l/m 2,8 km/h (1 Bft) 2 min 8,0 km/h (2 Bft)
03.07.2010 13:58 28,0 C 31,9 C 8,1 UV-I 4,2 C 55 % 48 % 100 % 1019,5 hPa 0,0 l/m 3,6 km/h (1 Bft) 2 min 5,8 km/h (2 Bft)
03.07.2010 14:00 28,0 C 31,9 C 8,1 UV-I 3,9 C 55 % 48 % 100 % 1019,5 hPa 0,0 l/m 3,2 km/h (1 Bft) 2 min 3,9 km/h (1 Bft)
03.07.2010 14:02 28,1 C 32,0 C 9,5 UV-I 3,8 C 55 % 48 % 100 % 1019,5 hPa 0,0 l/m 4,8 km/h (1 Bft) 2 min 8,4 km/h (2 Bft)
03.07.2010 14:04 28,1 C 32,0 C 9,5 UV-I 3,9 C 55 % 49 % 100 % 1019,5 hPa 0,0 l/m 4,8 km/h (1 Bft) 2 min 0,0 km/h (0 Bft)
03.07.2010 14:08 28,1 C 32,0 C 9,6 UV-I 4,3 C 55 % 48 % 100 % 1019,5 hPa 0,0 l/m 3,6 km/h (1 Bft) 2 min 0,0 km/h (0 Bft)
03.07.2010 14:10 28,1 C 32,0 C 9,6 UV-I 4,3 C 55 % 48 % 100 % 1019,7 hPa 0,0 l/m 3,6 km/h (1 Bft) 2 min 0,0 km/h (0 Bft)
03.07.2010 14:12 28,2 C 32,1 C 9,2 UV-I 4,3 C 54 % 48 % 100 % 1019,7 hPa 0,0 l/m 3,2 km/h (1 Bft) 2 min 7,4 km/h (2 Bft)
03.07.2010 14:14 28,2 C 32,3 C 9,2 UV-I 4,0 C 54 % 48 % 100 % 1019,7 hPa 0,0 l/m 3,2 km/h (1 Bft) 2 min 10,0 km/h (2 Bft)
03.07.2010 14:16 28,2 C 32,3 C 9,2 UV-I 4,1 C 54 % 48 % 100 % 1019,7 hPa 0,0 l/m 4,4 km/h (1 Bft) 2 min 8,7 km/h (2 Bft)
03.07.2010 14:20 28,3 C 32,3 C 10,1 UV-I 4,3 C 54 % 48 % 100 % 1019,7 hPa 0,0 l/m 5,6 km/h (1 Bft) 2 min 10,3 km/h (2 Bft)
03.07.2010 14:22 28,2 C 32,3 C 10,4 UV-I 4,6 C 54 % 48 % 100 % 1019,7 hPa 0,0 l/m 6,0 km/h (2 Bft) 2 min 3,5 km/h (1 Bft)
03.07.2010 14:24 28,2 C 32,5 C 10,4 UV-I 4,5 C 54 % 48 % 100 % 1019,7 hPa 0,0 l/m 6,8 km/h (2 Bft) 2 min 5,5 km/h (1 Bft)
03.07.2010 14:26 28,4 C 32,4 C 10,4 UV-I 4,8 C 54 % 48 % 100 % 1019,7 hPa 0,0 l/m 5,6 km/h (1 Bft) 2 min 4,5 km/h (1 Bft)
03.07.2010 14:28 28,4 C 32,5 C 10,4 UV-I 4,7 C 54 % 47 % 100 % 1019,7 hPa 0,0 l/m 6,0 km/h (2 Bft) 2 min 4,5 km/h (1 Bft)
03.07.2010 14:30 28,4 C 32,5 C 10,4 UV-I 4,7 C 54 % 47 % 100 % 1019,2 hPa 0,0 l/m 6,0 km/h (2 Bft) 2 min 4,5 km/h (1 Bft)
03.07.2010 14:32 28,5 C 32,7 C 10,2 UV-I 4,6 C 54 % 47 % 100 % 1019,2 hPa 0,0 l/m 6,8 km/h (2 Bft) 2 min 8,0 km/h (2 Bft)
03.07.2010 14:34 28,5 C 32,7 C 10,2 UV-I 4,6 C 54 % 48 % 100 % 1019,2 hPa 0,0 l/m 6,4 km/h (2 Bft) 2 min 4,8 km/h (1 Bft)
03.07.2010 14:36 28,6 C 32,7 C 10,2 UV-I 4,6 C 54 % 47 % 100 % 1019,2 hPa 0,0 l/m 6,4 km/h (2 Bft) 2 min 3,9 km/h (1 Bft)
03.07.2010 14:38 28,7 C 32,7 C 10,0 UV-I 4,6 C 54 % 47 % 100 % 1019,2 hPa 0,0 l/m 6,8 km/h (2 Bft) 2 min 5,1 km/h (1 Bft)
03.07.2010 14:42 28,7 C 32,8 C 9,9 UV-I 4,5 C 54 % 47 % 100 % 1019,2 hPa 0,0 l/m 5,6 km/h (1 Bft) 2 min 0,0 km/h (0 Bft)
03.07.2010 14:44 28,8 C 32,8 C 9,9 UV-I 4,5 C 53 % 47 % 100 % 1019,2 hPa 0,0 l/m 5,6 km/h (1 Bft) 2 min 8,4 km/h (2 Bft)
03.07.2010 14:46 28,8 C 32,8 C 9,9 UV-I 4,6 C 53 % 46 % 100 % 1019,2 hPa 0,0 l/m 5,2 km/h (1 Bft) 2 min 5,1 km/h (1 Bft)
03.07.2010 14:48 28,8 C 32,9 C 10,0 UV-I 4,7 C 53 % 46 % 100 % 1019,2 hPa 0,0 l/m 4,4 km/h (1 Bft) 2 min 0,0 km/h (0 Bft)
03.07.2010 14:50 28,8 C 32,9 C 10,0 UV-I 4,7 C 53 % 46 % 100 % 1019,6 hPa 0,0 l/m 4,4 km/h (1 Bft) 2 min 0,0 km/h (0 Bft)
03.07.2010 14:52 28,9 C 33,1 C 11,2 UV-I 5,0 C 53 % 45 % 100 % 1019,6 hPa 0,0 l/m 4,4 km/h (1 Bft) 2 min 13,2 km/h (3 Bft)
03.07.2010 14:54 29,0 C 33,1 C 11,2 UV-I 5,1 C 53 % 46 % 100 % 1019,6 hPa 0,0 l/m 6,0 km/h (2 Bft) 2 min 8,4 km/h (2 Bft)
03.07.2010 14:56 29,0 C 32,9 C 11,2 UV-I 5,2 C 53 % 44 % 100 % 1019,6 hPa 0,0 l/m 7,2 km/h (2 Bft) 2 min 16,1 km/h (3 Bft)
03.07.2010 14:58 29,0 C 32,9 C 10,7 UV-I 5,0 C 53 % 44 % 100 % 1019,6 hPa 0,0 l/m 9,2 km/h (2 Bft) 2 min 12,2 km/h (2 Bft)
03.07.2010 15:00 29,1 C 32,7 C 10,7 UV-I 4,9 C 53 % 46 % 100 % 1019,6 hPa 0,0 l/m 10,0 km/h (2 Bft) 2 min 8,7 km/h (2 Bft)
03.07.2010 15:02 29,1 C 32,9 C 11,5 UV-I 4,8 C 53 % 45 % 100 % 1019,6 hPa 0,0 l/m 10,4 km/h (2 Bft) 2 min 9,0 km/h (2 Bft)
03.07.2010 15:04 29,2 C 33,0 C 11,5 UV-I 5,0 C 53 % 44 % 100 % 1019,6 hPa 0,0 l/m 9,2 km/h (2 Bft) 2 min 6,1 km/h (2 Bft)
03.07.2010 15:06 29,2 C 33,0 C 11,5 UV-I 5,1 C 52 % 45 % 100 % 1019,6 hPa 0,0 l/m 8,4 km/h (2 Bft) 2 min 11,9 km/h (2 Bft)
03.07.2010 15:08 29,2 C 33,0 C 7,0 UV-I 4,8 C 52 % 45 % 100 % 1019,6 hPa 0,0 l/m 6,8 km/h (2 Bft) 2 min 6,8 km/h (2 Bft)
03.07.2010 15:10 29,2 C 33,0 C 7,0 UV-I 4,8 C 52 % 45 % 100 % 1020,4 hPa 0,0 l/m 6,8 km/h (2 Bft) 2 min 6,8 km/h (2 Bft)
03.07.2010 15:12 29,2 C 32,8 C 3,7 UV-I 3,7 C 52 % 45 % 100 % 1020,4 hPa 0,0 l/m 5,6 km/h (1 Bft) 2 min 5,8 km/h (2 Bft)
03.07.2010 15:14 29,2 C 32,6 C 3,7 UV-I 3,2 C 52 % 46 % 91 % 1020,4 hPa 0,0 l/m 4,4 km/h (1 Bft) 2 min 0,0 km/h (0 Bft)
03.07.2010 15:16 29,2 C 32,6 C 3,7 UV-I 2,5 C 52 % 46 % 71 % 1020,4 hPa 0,0 l/m 4,8 km/h (1 Bft) 0 min 3,5 km/h (1 Bft)
03.07.2010 15:26 29,2 C 31,9 C 2,8 UV-I 1,1 C 52 % 47 % 31 % 1020,4 hPa 0,0 l/m 6,0 km/h (2 Bft) 0 min 24,1 km/h (4 Bft)
03.07.2010 15:28 29,2 C 31,9 C 2,5 UV-I 0,9 C 52 % 47 % 26 % 1020,4 hPa 0,0 l/m 6,4 km/h (2 Bft) 0 min 3,9 km/h (1 Bft)
03.07.2010 15:30 29,2 C 31,9 C 2,5 UV-I 0,9 C 52 % 47 % 26 % 1019,7 hPa 0,0 l/m 6,4 km/h (2 Bft) 0 min 3,9 km/h (1 Bft)
03.07.2010 15:32 29,2 C 31,7 C 1,7 UV-I 0,6 C 52 % 47 % 17 % 1019,7 hPa 0,0 l/m 3,2 km/h (1 Bft) 0 min 3,2 km/h (1 Bft)
03.07.2010 15:34 29,2 C 31,7 C 1,7 UV-I 0,5 C 52 % 48 % 14 % 1019,7 hPa 0,0 l/m 3,6 km/h (1 Bft) 0 min 4,8 km/h (1 Bft)
03.07.2010 15:36 29,2 C 31,4 C 1,7 UV-I 0,5 C 52 % 48 % 14 % 1019,7 hPa 0,0 l/m 4,8 km/h (1 Bft) 0 min 3,2 km/h (1 Bft)
03.07.2010 15:38 29,1 C 31,4 C 0,4 UV-I 0,3 C 52 % 48 % 9 % 1019,7 hPa 0,0 l/m 4,8 km/h (1 Bft) 0 min 0,0 km/h (0 Bft)
03.07.2010 15:40 29,1 C 31,4 C 0,4 UV-I 0,1 C 52 % 49 % 3 % 1019,7 hPa 0,0 l/m 5,2 km/h (1 Bft) 0 min 5,8 km/h (2 Bft)
03.07.2010 15:44 29,1 C 31,2 C 0,4 UV-I 0,0 C 52 % 49 % 0 % 1019,7 hPa 0,0 l/m 5,2 km/h (1 Bft) 0 min 5,1 km/h (1 Bft)
03.07.2010 15:46 29,1 C 31,1 C 0,4 UV-I 0,0 C 52 % 49 % 0 % 1019,7 hPa 0,0 l/m 4,4 km/h (1 Bft) 0 min 0,0 km/h (0 Bft)
03.07.2010 15:48 29,1 C 31,1 C 0,2 UV-I 0,0 C 52 % 49 % 0 % 1019,7 hPa 0,0 l/m 4,0 km/h (1 Bft) 0 min 3,5 km/h (1 Bft)
03.07.2010 15:50 29,1 C 31,1 C 0,2 UV-I 0,0 C 52 % 49 % 0 % 1019,7 hPa 0,0 l/m 4,0 km/h (1 Bft) 0 min 3,5 km/h (1 Bft)
03.07.2010 15:52 29,0 C 30,9 C 0,5 UV-I 0,0 C 52 % 49 % 0 % 1019,7 hPa 0,0 l/m 4,4 km/h (1 Bft) 0 min 6,4 km/h (2 Bft)
03.07.2010 15:56 29,0 C 30,7 C 0,5 UV-I 0,0 C 52 % 49 % 0 % 1019,7 hPa 0,0 l/m 4,8 km/h (1 Bft) 0 min 21,2 km/h (4 Bft)
03.07.2010 15:58 29,0 C 30,6 C 0,1 UV-I 0,0 C 53 % 49 % 0 % 1019,7 hPa 0,0 l/m 5,6 km/h (1 Bft) 0 min 3,9 km/h (1 Bft)
03.07.2010 16:00 28,9 C 30,5 C 0,1 UV-I 0,0 C 52 % 49 % 0 % 1019,7 hPa 0,0 l/m 6,0 km/h (2 Bft) 0 min 5,8 km/h (2 Bft)
03.07.2010 16:02 28,9 C 30,4 C 0,1 UV-I 0,0 C 53 % 49 % 0 % 1019,7 hPa 0,0 l/m 6,8 km/h (2 Bft) 0 min 15,4 km/h (3 Bft)
03.07.2010 16:04 28,9 C 30,3 C 0,1 UV-I 0,0 C 53 % 49 % 0 % 1019,7 hPa 0,0 l/m 5,6 km/h (1 Bft) 0 min 0,0 km/h (0 Bft)
03.07.2010 16:06 28,9 C 30,3 C 0,1 UV-I 0,0 C 53 % 49 % 0 % 1019,7 hPa 0,0 l/m 4,8 km/h (1 Bft) 0 min 4,8 km/h (1 Bft)
03.07.2010 16:08 28,8 C 30,0 C 0,0 UV-I 0,0 C 53 % 49 % 0 % 1019,7 hPa 0,0 l/m 5,6 km/h (1 Bft) 0 min 11,9 km/h (2 Bft)
03.07.2010 16:10 28,8 C 30,0 C 0,0 UV-I 0,0 C 53 % 49 % 0 % 1019,8 hPa 0,0 l/m 5,6 km/h (1 Bft) 0 min 11,9 km/h (2 Bft)
03.07.2010 16:14 28,8 C 29,7 C 0,1 UV-I 0,0 C 53 % 50 % 0 % 1019,8 hPa 0,0 l/m 6,0 km/h (2 Bft) 0 min 6,4 km/h (2 Bft)
03.07.2010 16:18 28,8 C 29,7 C 0,1 UV-I 0,0 C 53 % 51 % 0 % 1019,8 hPa 0,0 l/m 6,0 km/h (2 Bft) 0 min 6,4 km/h (2 Bft)
03.07.2010 16:20 28,7 C 29,4 C 0,1 UV-I 0,0 C 53 % 52 % 0 % 1019,8 hPa 0,0 l/m 6,0 km/h (2 Bft) 0 min 8,0 km/h (2 Bft)
03.07.2010 16:22 28,7 C 29,2 C 0,1 UV-I 0,0 C 53 % 53 % 0 % 1019,8 hPa 0,0 l/m 5,6 km/h (1 Bft) 0 min 8,0 km/h (2 Bft)
03.07.2010 16:24 28,7 C 29,2 C 0,1 UV-I 0,0 C 53 % 53 % 0 % 1019,8 hPa 0,0 l/m 6,0 km/h (2 Bft) 0 min 7,4 km/h (2 Bft)
03.07.2010 16:26 28,7 C 29,1 C 0,1 UV-I 0,0 C 53 % 54 % 0 % 1019,8 hPa 0,0 l/m 6,0 km/h (2 Bft) 0 min 8,7 km/h (2 Bft)
03.07.2010 16:28 28,6 C 29,0 C 0,0 UV-I 0,0 C 53 % 54 % 0 % 1019,8 hPa 0,0 l/m 7,2 km/h (2 Bft) 0 min 13,5 km/h (3 Bft)
03.07.2010 16:30 28,6 C 29,0 C 0,0 UV-I 0,0 C 53 % 54 % 0 % 1020,2 hPa 0,0 l/m 7,2 km/h (2 Bft) 0 min 13,5 km/h (3 Bft)
03.07.2010 16:32 28,6 C 28,8 C 0,0 UV-I 0,0 C 53 % 55 % 0 % 1020,2 hPa 0,0 l/m 7,2 km/h (2 Bft) 0 min 0,0 km/h (0 Bft)
03.07.2010 16:34 28,6 C 28,6 C 0,0 UV-I 0,0 C 53 % 56 % 0 % 1020,2 hPa 0,0 l/m 6,8 km/h (2 Bft) 0 min 8,7 km/h (2 Bft)
03.07.2010 16:36 28,6 C 28,6 C 0,0 UV-I 0,0 C 53 % 56 % 0 % 1020,2 hPa 0,0 l/m 6,0 km/h (2 Bft) 0 min 7,1 km/h (2 Bft)
03.07.2010 16:38 28,5 C 28,3 C 0,0 UV-I 0,0 C 53 % 58 % 0 % 1020,2 hPa 0,0 l/m 7,2 km/h (2 Bft) 0 min 13,5 km/h (3 Bft)
03.07.2010 16:40 28,5 C 28,3 C 0,0 UV-I 0,0 C 53 % 58 % 0 % 1020,2 hPa 0,0 l/m 6,8 km/h (2 Bft) 0 min 6,8 km/h (2 Bft)
03.07.2010 16:42 28,5 C 28,2 C 0,0 UV-I 0,0 C 53 % 59 % 0 % 1020,2 hPa 0,0 l/m 7,6 km/h (2 Bft) 0 min 7,7 km/h (2 Bft)
03.07.2010 16:44 28,5 C 27,9 C 0,0 UV-I 0,0 C 53 % 59 % 0 % 1020,2 hPa 0,0 l/m 8,8 km/h (2 Bft) 0 min 16,1 km/h (3 Bft)
03.07.2010 16:46 28,5 C 27,7 C 0,0 UV-I 0,0 C 53 % 59 % 0 % 1020,2 hPa 0,0 l/m 9,6 km/h (2 Bft) 0 min 17,4 km/h (3 Bft)
03.07.2010 16:48 28,4 C 27,5 C 0,0 UV-I 0,0 C 54 % 60 % 0 % 1020,2 hPa 0,0 l/m 9,2 km/h (2 Bft) 0 min 3,5 km/h (1 Bft)
03.07.2010 16:52 28,4 C 27,2 C 0,0 UV-I 0,0 C 54 % 61 % 0 % 1020,8 hPa 0,0 l/m 8,0 km/h (2 Bft) 0 min 12,2 km/h (2 Bft)
03.07.2010 16:54 28,4 C 27,0 C 0,0 UV-I 0,0 C 54 % 61 % 0 % 1020,8 hPa 0,0 l/m 7,6 km/h (2 Bft) 0 min 9,7 km/h (2 Bft)
03.07.2010 16:56 28,4 C 26,9 C 0,0 UV-I 0,0 C 54 % 63 % 0 % 1020,8 hPa 0,0 l/m 7,2 km/h (2 Bft) 0 min 0,0 km/h (0 Bft)
03.07.2010 16:58 28,4 C 26,7 C 0,0 UV-I 0,0 C 54 % 64 % 0 % 1020,8 hPa 0,0 l/m 4,4 km/h (1 Bft) 0 min 0,0 km/h (0 Bft)
03.07.2010 17:00 28,4 C 26,7 C 0,0 UV-I 0,0 C 54 % 65 % 0 % 1020,8 hPa 0,1 l/m 4,8 km/h (1 Bft) 0 min 5,8 km/h (2 Bft)
03.07.2010 17:02 28,4 C 26,5 C 0,0 UV-I 0,0 C 54 % 66 % 0 % 1020,8 hPa 0,0 l/m 4,0 km/h (1 Bft) 0 min 3,2 km/h (1 Bft)
03.07.2010 17:06 28,2 C 25,9 C 0,0 UV-I 0,0 C 55 % 69 % 0 % 1020,8 hPa 0,0 l/m 2,8 km/h (1 Bft) 0 min 4,8 km/h (1 Bft)
03.07.2010 17:08 28,3 C 25,9 C 0,1 UV-I 0,0 C 55 % 69 % 0 % 1020,8 hPa 0,0 l/m 2,8 km/h (1 Bft) 0 min 5,1 km/h (1 Bft)
03.07.2010 17:10 28,3 C 25,7 C 0,1 UV-I 0,0 C 55 % 69 % 0 % 1021,2 hPa 0,0 l/m 2,8 km/h (1 Bft) 0 min 5,1 km/h (1 Bft)
03.07.2010 17:12 28,3 C 25,7 C 0,2 UV-I 0,0 C 55 % 69 % 0 % 1021,2 hPa 0,0 l/m 2,4 km/h (1 Bft) 0 min 0,0 km/h (0 Bft)
03.07.2010 17:16 28,2 C 25,4 C 0,2 UV-I 0,0 C 55 % 70 % 0 % 1021,2 hPa 0,0 l/m 3,2 km/h (1 Bft) 0 min 3,5 km/h (1 Bft)
03.07.2010 17:18 28,2 C 25,3 C 0,5 UV-I 0,0 C 56 % 70 % 0 % 1021,2 hPa 0,0 l/m 3,2 km/h (1 Bft) 0 min 11,9 km/h (2 Bft)
03.07.2010 17:20 28,2 C 25,3 C 0,5 UV-I 0,0 C 56 % 70 % 0 % 1021,2 hPa 0,0 l/m 4,0 km/h (1 Bft) 0 min 11,9 km/h (2 Bft)
03.07.2010 17:22 28,2 C 25,2 C 0,8 UV-I 0,0 C 56 % 70 % 0 % 1021,2 hPa 0,0 l/m 5,2 km/h (1 Bft) 0 min 5,8 km/h (2 Bft)
03.07.2010 17:24 28,2 C 25,1 C 0,8 UV-I 0,0 C 56 % 70 % 0 % 1021,2 hPa 0,0 l/m 4,8 km/h (1 Bft) 0 min 0,0 km/h (0 Bft)
03.07.2010 17:26 28,2 C 25,1 C 0,8 UV-I 0,0 C 56 % 70 % 0 % 1021,2 hPa 0,0 l/m 6,4 km/h (2 Bft) 0 min 9,3 km/h (2 Bft)
03.07.2010 17:28 28,2 C 25,0 C 1,2 UV-I 0,0 C 56 % 70 % 0 % 1021,2 hPa 0,0 l/m 7,6 km/h (2 Bft) 0 min 6,1 km/h (2 Bft)
03.07.2010 17:30 28,2 C 24,9 C 1,2 UV-I 0,0 C 56 % 71 % 0 % 1021,1 hPa 0,0 l/m 7,6 km/h (2 Bft) 0 min 6,1 km/h (2 Bft)
03.07.2010 17:32 28,2 C 24,9 C 1,1 UV-I 0,0 C 56 % 71 % 0 % 1021,1 hPa 0,0 l/m 6,0 km/h (2 Bft) 0 min 7,4 km/h (2 Bft)
03.07.2010 17:34 28,2 C 24,9 C 1,1 UV-I 0,0 C 56 % 71 % 0 % 1021,1 hPa 0,0 l/m 6,4 km/h (2 Bft) 0 min 7,4 km/h (2 Bft)
03.07.2010 17:36 28,1 C 24,8 C 1,1 UV-I 0,0 C 56 % 72 % 0 % 1021,1 hPa 0,0 l/m 6,8 km/h (2 Bft) 0 min 7,1 km/h (2 Bft)
03.07.2010 17:40 28,1 C 24,9 C 1,3 UV-I 0,0 C 56 % 71 % 0 % 1021,1 hPa 0,0 l/m 6,8 km/h (2 Bft) 0 min 3,9 km/h (1 Bft)
03.07.2010 17:42 28,1 C 24,8 C 0,8 UV-I 0,0 C 56 % 72 % 0 % 1021,1 hPa 0,0 l/m 7,6 km/h (2 Bft) 0 min 13,5 km/h (3 Bft)
03.07.2010 17:44 28,1 C 24,8 C 0,8 UV-I 0,0 C 56 % 72 % 0 % 1021,1 hPa 0,0 l/m 7,6 km/h (2 Bft) 0 min 8,4 km/h (2 Bft)
03.07.2010 17:46 28,1 C 24,7 C 0,8 UV-I 0,1 C 57 % 72 % 3 % 1021,1 hPa 0,0 l/m 8,0 km/h (2 Bft) 0 min 5,5 km/h (1 Bft)
03.07.2010 17:48 28,1 C 24,7 C 0,8 UV-I 0,1 C 57 % 72 % 3 % 1021,1 hPa 0,0 l/m 6,8 km/h (2 Bft) 0 min 7,1 km/h (2 Bft)
03.07.2010 17:50 28,1 C 24,7 C 0,8 UV-I 0,1 C 57 % 72 % 3 % 1021,2 hPa 0,0 l/m 6,8 km/h (2 Bft) 0 min 7,1 km/h (2 Bft)
03.07.2010 17:52 28,0 C 24,7 C 0,8 UV-I 0,3 C 57 % 73 % 9 % 1021,2 hPa 0,0 l/m 7,2 km/h (2 Bft) 0 min 8,0 km/h (2 Bft)
03.07.2010 17:56 28,0 C 24,8 C 0,8 UV-I 0,4 C 57 % 73 % 11 % 1021,2 hPa 0,0 l/m 7,2 km/h (2 Bft) 0 min 8,7 km/h (2 Bft)
03.07.2010 17:58 28,0 C 24,8 C 2,7 UV-I 0,5 C 57 % 73 % 14 % 1021,2 hPa 0,0 l/m 8,4 km/h (2 Bft) 0 min 12,2 km/h (2 Bft)
03.07.2010 18:02 28,0 C 24,9 C 2,7 UV-I 0,6 C 57 % 73 % 17 % 1021,2 hPa 0,0 l/m 9,6 km/h (2 Bft) 0 min 7,4 km/h (2 Bft)
03.07.2010 18:04 28,0 C 24,9 C 2,7 UV-I 0,7 C 57 % 73 % 20 % 1021,2 hPa 0,0 l/m 9,2 km/h (2 Bft) 0 min 9,0 km/h (2 Bft)
03.07.2010 18:06 28,0 C 24,9 C 2,7 UV-I 0,8 C 57 % 73 % 23 % 1021,2 hPa 0,0 l/m 8,8 km/h (2 Bft) 0 min 9,3 km/h (2 Bft)
03.07.2010 18:08 28,0 C 24,9 C 3,2 UV-I 0,9 C 57 % 73 % 26 % 1021,2 hPa 0,0 l/m 8,8 km/h (2 Bft) 0 min 10,9 km/h (2 Bft)
03.07.2010 18:12 28,0 C 25,0 C 2,9 UV-I 1,0 C 57 % 73 % 29 % 1021,0 hPa 0,0 l/m 6,8 km/h (2 Bft) 0 min 9,7 km/h (2 Bft)
03.07.2010 18:14 28,0 C 25,1 C 2,9 UV-I 1,0 C 57 % 72 % 29 % 1021,0 hPa 0,0 l/m 6,8 km/h (2 Bft) 0 min 6,1 km/h (2 Bft)
03.07.2010 18:16 28,0 C 25,0 C 2,9 UV-I 1,3 C 57 % 72 % 37 % 1021,0 hPa 0,0 l/m 8,0 km/h (2 Bft) 0 min 10,9 km/h (2 Bft)
03.07.2010 18:20 28,0 C 25,0 C 3,1 UV-I 1,4 C 57 % 72 % 40 % 1021,0 hPa 0,0 l/m 9,2 km/h (2 Bft) 0 min 12,9 km/h (3 Bft)
03.07.2010 18:28 28,0 C 25,1 C 2,8 UV-I 1,4 C 57 % 72 % 40 % 1021,0 hPa 0,0 l/m 10,0 km/h (2 Bft) 0 min 15,4 km/h (3 Bft)
03.07.2010 18:30 28,0 C 25,1 C 2,8 UV-I 1,4 C 57 % 72 % 40 % 1021,1 hPa 0,0 l/m 10,0 km/h (2 Bft) 0 min 15,4 km/h (3 Bft)
03.07.2010 18:32 28,0 C 25,0 C 2,4 UV-I 1,3 C 57 % 72 % 37 % 1021,1 hPa 0,0 l/m 10,4 km/h (2 Bft) 0 min 19,3 km/h (3 Bft)
03.07.2010 18:36 28,1 C 25,1 C 2,4 UV-I 1,2 C 57 % 72 % 34 % 1021,1 hPa 0,0 l/m 10,8 km/h (2 Bft) 0 min 5,5 km/h (1 Bft)
03.07.2010 18:38 28,1 C 25,1 C 2,2 UV-I 1,2 C 57 % 72 % 34 % 1021,1 hPa 0,0 l/m 10,0 km/h (2 Bft) 0 min 7,4 km/h (2 Bft)
03.07.2010 18:40 28,1 C 25,2 C 2,2 UV-I 1,1 C 57 % 71 % 31 % 1021,1 hPa 0,0 l/m 9,2 km/h (2 Bft) 0 min 10,9 km/h (2 Bft)
03.07.2010 18:42 28,0 C 25,2 C 1,9 UV-I 1,1 C 57 % 71 % 31 % 1021,1 hPa 0,0 l/m 9,2 km/h (2 Bft) 0 min 6,8 km/h (2 Bft)
03.07.2010 18:46 28,1 C 25,2 C 1,9 UV-I 1,1 C 57 % 71 % 31 % 1021,1 hPa 0,0 l/m 10,8 km/h (2 Bft) 0 min 18,0 km/h (3 Bft)
03.07.2010 18:48 28,1 C 25,1 C 1,7 UV-I 1,1 C 57 % 71 % 31 % 1021,1 hPa 0,0 l/m 12,0 km/h (2 Bft) 0 min 6,1 km/h (2 Bft)
03.07.2010 18:52 28,1 C 25,1 C 1,9 UV-I 0,9 C 57 % 71 % 26 % 1021,2 hPa 0,0 l/m 14,1 km/h (3 Bft) 0 min 29,6 km/h (5 Bft)
03.07.2010 18:56 28,0 C 25,2 C 1,9 UV-I 0,7 C 57 % 71 % 20 % 1021,2 hPa 0,0 l/m 12,0 km/h (2 Bft) 0 min 6,4 km/h (2 Bft)
03.07.2010 19:02 28,0 C 25,2 C 1,3 UV-I 0,8 C 57 % 70 % 23 % 1021,2 hPa 0,0 l/m 10,0 km/h (2 Bft) 0 min 8,0 km/h (2 Bft)
03.07.2010 19:04 28,0 C 25,3 C 1,3 UV-I 0,8 C 57 % 70 % 23 % 1021,2 hPa 0,0 l/m 8,8 km/h (2 Bft) 0 min 10,9 km/h (2 Bft)
03.07.2010 19:08 28,1 C 25,5 C 1,7 UV-I 0,7 C 57 % 71 % 20 % 1021,2 hPa 0,0 l/m 8,4 km/h (2 Bft) 0 min 12,2 km/h (2 Bft)
03.07.2010 19:10 28,1 C 25,5 C 1,7 UV-I 0,7 C 57 % 71 % 20 % 1021,5 hPa 0,0 l/m 8,4 km/h (2 Bft) 0 min 12,2 km/h (2 Bft)
03.07.2010 19:16 28,0 C 25,5 C 1,1 UV-I 0,7 C 57 % 69 % 20 % 1021,5 hPa 0,0 l/m 9,2 km/h (2 Bft) 0 min 18,7 km/h (3 Bft)
03.07.2010 19:18 28,0 C 25,5 C 1,2 UV-I 0,6 C 57 % 69 % 17 % 1021,5 hPa 0,0 l/m 10,4 km/h (2 Bft) 0 min 12,6 km/h (3 Bft)
03.07.2010 19:20 28,0 C 25,4 C 1,2 UV-I 0,6 C 57 % 69 % 17 % 1021,5 hPa 0,0 l/m 11,2 km/h (2 Bft) 0 min 13,8 km/h (3 Bft)
03.07.2010 19:22 28,0 C 25,4 C 1,0 UV-I 0,5 C 57 % 69 % 14 % 1021,5 hPa 0,0 l/m 11,2 km/h (2 Bft) 0 min 11,3 km/h (2 Bft)
03.07.2010 19:26 28,0 C 25,3 C 1,0 UV-I 0,6 C 57 % 70 % 17 % 1021,5 hPa 0,0 l/m 9,2 km/h (2 Bft) 0 min 8,7 km/h (2 Bft)
03.07.2010 19:28 28,0 C 25,5 C 1,4 UV-I 0,4 C 57 % 70 % 11 % 1021,5 hPa 0,0 l/m 7,6 km/h (2 Bft) 0 min 9,3 km/h (2 Bft)
03.07.2010 19:30 28,0 C 25,5 C 1,4 UV-I 0,4 C 57 % 70 % 11 % 1021,2 hPa 0,0 l/m 7,6 km/h (2 Bft) 0 min 9,3 km/h (2 Bft)
03.07.2010 19:32 28,0 C 25,4 C 1,0 UV-I 0,5 C 57 % 70 % 14 % 1021,2 hPa 0,0 l/m 6,4 km/h (2 Bft) 0 min 4,8 km/h (1 Bft)
03.07.2010 19:34 28,0 C 25,4 C 1,0 UV-I 0,5 C 57 % 70 % 14 % 1021,2 hPa 0,0 l/m 6,8 km/h (2 Bft) 0 min 15,4 km/h (3 Bft)
03.07.2010 19:36 28,0 C 25,5 C 1,0 UV-I 0,4 C 57 % 70 % 11 % 1021,2 hPa 0,0 l/m 8,8 km/h (2 Bft) 0 min 10,9 km/h (2 Bft)
03.07.2010 19:38 28,0 C 25,5 C 1,4 UV-I 0,3 C 57 % 70 % 9 % 1021,2 hPa 0,0 l/m 8,8 km/h (2 Bft) 0 min 4,5 km/h (1 Bft)
03.07.2010 19:42 28,0 C 25,4 C 0,9 UV-I 0,3 C 57 % 70 % 9 % 1021,2 hPa 0,0 l/m 7,6 km/h (2 Bft) 0 min 7,4 km/h (2 Bft)
03.07.2010 19:44 28,0 C 25,5 C 0,9 UV-I 0,2 C 57 % 70 % 6 % 1021,2 hPa 0,0 l/m 8,8 km/h (2 Bft) 0 min 10,6 km/h (2 Bft)
03.07.2010 19:46 28,0 C 25,3 C 0,9 UV-I 0,3 C 57 % 70 % 9 % 1021,2 hPa 0,0 l/m 8,0 km/h (2 Bft) 0 min 8,4 km/h (2 Bft)
03.07.2010 19:48 28,0 C 25,3 C 0,5 UV-I 0,2 C 57 % 70 % 6 % 1021,2 hPa 0,0 l/m 8,0 km/h (2 Bft) 0 min 7,7 km/h (2 Bft)
03.07.2010 19:50 28,0 C 25,3 C 0,5 UV-I 0,2 C 57 % 70 % 6 % 1021,5 hPa 0,0 l/m 8,0 km/h (2 Bft) 0 min 7,7 km/h (2 Bft)
03.07.2010 19:52 27,9 C 25,3 C 0,5 UV-I 0,2 C 57 % 70 % 6 % 1021,5 hPa 0,0 l/m 9,6 km/h (2 Bft) 0 min 15,8 km/h (3 Bft)
03.07.2010 19:54 27,9 C 25,3 C 0,5 UV-I 0,1 C 57 % 70 % 3 % 1021,5 hPa 0,0 l/m 10,8 km/h (2 Bft) 0 min 11,6 km/h (2 Bft)
03.07.2010 19:56 27,9 C 25,2 C 0,5 UV-I 0,1 C 57 % 70 % 3 % 1021,5 hPa 0,0 l/m 10,0 km/h (2 Bft) 0 min 7,4 km/h (2 Bft)
03.07.2010 19:58 27,9 C 25,3 C 0,2 UV-I 0,0 C 57 % 70 % 0 % 1021,5 hPa 0,0 l/m 9,6 km/h (2 Bft) 0 min 7,1 km/h (2 Bft)
03.07.2010 20:00 27,9 C 25,2 C 0,2 UV-I 0,1 C 57 % 70 % 3 % 1021,5 hPa 0,0 l/m 8,8 km/h (2 Bft) 0 min 9,3 km/h (2 Bft)
03.07.2010 20:02 27,9 C 25,2 C 0,2 UV-I 0,0 C 57 % 70 % 0 % 1021,5 hPa 0,0 l/m 8,0 km/h (2 Bft) 0 min 6,1 km/h (2 Bft)
03.07.2010 20:06 27,9 C 25,3 C 0,2 UV-I 0,0 C 57 % 70 % 0 % 1021,5 hPa 0,0 l/m 7,2 km/h (2 Bft) 0 min 9,0 km/h (2 Bft)
03.07.2010 20:08 27,8 C 25,2 C 0,1 UV-I 0,0 C 57 % 70 % 0 % 1021,5 hPa 0,0 l/m 8,0 km/h (2 Bft) 0 min 9,3 km/h (2 Bft)
03.07.2010 20:10 27,8 C 25,1 C 0,1 UV-I 0,0 C 57 % 70 % 0 % 1021,4 hPa 0,0 l/m 8,0 km/h (2 Bft) 0 min 9,3 km/h (2 Bft)
03.07.2010 20:14 27,8 C 25,1 C 0,0 UV-I 0,0 C 57 % 70 % 0 % 1021,4 hPa 0,0 l/m 9,6 km/h (2 Bft) 0 min 8,4 km/h (2 Bft)
03.07.2010 20:16 27,8 C 25,1 C 0,0 UV-I 0,0 C 57 % 70 % 0 % 1021,4 hPa 0,0 l/m 8,8 km/h (2 Bft) 0 min 9,3 km/h (2 Bft)
03.07.2010 20:18 27,8 C 25,1 C 0,0 UV-I 0,0 C 57 % 70 % 0 % 1021,4 hPa 0,0 l/m 8,8 km/h (2 Bft) 0 min 3,9 km/h (1 Bft)
03.07.2010 20:22 27,8 C 25,1 C 0,0 UV-I 0,0 C 57 % 70 % 0 % 1021,4 hPa 0,0 l/m 8,4 km/h (2 Bft) 0 min 8,7 km/h (2 Bft)
03.07.2010 20:24 27,8 C 25,1 C 0,0 UV-I 0,0 C 57 % 70 % 0 % 1021,4 hPa 0,0 l/m 8,0 km/h (2 Bft) 0 min 6,8 km/h (2 Bft)
03.07.2010 20:28 27,7 C 25,0 C 0,0 UV-I 0,0 C 57 % 70 % 0 % 1021,4 hPa 0,0 l/m 10,0 km/h (2 Bft) 0 min 10,3 km/h (2 Bft)
03.07.2010 20:34 27,7 C 24,8 C 0,0 UV-I 0,0 C 58 % 70 % 0 % 1021,8 hPa 0,0 l/m 9,2 km/h (2 Bft) 0 min 10,0 km/h (2 Bft)
03.07.2010 20:36 27,7 C 24,9 C 0,0 UV-I 0,0 C 58 % 70 % 0 % 1021,8 hPa 0,0 l/m 9,2 km/h (2 Bft) 0 min 0,0 km/h (0 Bft)
03.07.2010 20:38 27,7 C 24,8 C 0,0 UV-I 0,0 C 58 % 70 % 0 % 1021,8 hPa 0,0 l/m 8,0 km/h (2 Bft) 0 min 16,4 km/h (3 Bft)
03.07.2010 20:40 27,6 C 24,8 C 0,0 UV-I 0,0 C 58 % 70 % 0 % 1021,8 hPa 0,0 l/m 7,2 km/h (2 Bft) 0 min 7,7 km/h (2 Bft)
03.07.2010 20:42 27,6 C 24,7 C 0,0 UV-I 0,0 C 58 % 70 % 0 % 1021,8 hPa 0,0 l/m 6,4 km/h (2 Bft) 0 min 3,2 km/h (1 Bft)
03.07.2010 20:46 27,6 C 24,6 C 0,0 UV-I 0,0 C 58 % 70 % 0 % 1021,8 hPa 0,0 l/m 4,8 km/h (1 Bft) 0 min 3,5 km/h (1 Bft)
03.07.2010 20:48 27,6 C 24,6 C 0,0 UV-I 0,0 C 58 % 69 % 0 % 1021,8 hPa 0,0 l/m 5,6 km/h (1 Bft) 0 min 8,4 km/h (2 Bft)
03.07.2010 20:58 27,5 C 24,4 C 0,0 UV-I 0,0 C 58 % 69 % 0 % 1021,9 hPa 0,0 l/m 4,4 km/h (1 Bft) 0 min 4,2 km/h (1 Bft)
03.07.2010 21:16 27,4 C 23,8 C 0,0 UV-I 0,0 C 57 % 74 % 0 % 1022,2 hPa 0,2 l/m 2,4 km/h (1 Bft) 0 min 6,4 km/h (2 Bft)
03.07.2010 21:18 27,4 C 23,6 C 0,0 UV-I 0,0 C 57 % 74 % 0 % 1022,2 hPa 0,4 l/m 3,2 km/h (1 Bft) 0 min 8,0 km/h (2 Bft)
03.07.2010 21:20 27,4 C 23,3 C 0,0 UV-I 0,0 C 58 % 75 % 0 % 1022,2 hPa 0,3 l/m 3,6 km/h (1 Bft) 0 min 7,7 km/h (2 Bft)
03.07.2010 21:22 27,4 C 23,1 C 0,0 UV-I 0,0 C 58 % 76 % 0 % 1022,2 hPa 0,0 l/m 3,6 km/h (1 Bft) 0 min 3,2 km/h (1 Bft)
03.07.2010 21:28 27,2 C 22,8 C 0,0 UV-I 0,0 C 58 % 78 % 0 % 1022,2 hPa 0,5 l/m 3,6 km/h (1 Bft) 0 min 0,0 km/h (0 Bft)
03.07.2010 21:32 27,2 C 22,5 C 0,0 UV-I 0,0 C 58 % 79 % 0 % 1022,4 hPa 0,6 l/m 3,6 km/h (1 Bft) 0 min 5,5 km/h (1 Bft)
03.07.2010 21:34 27,2 C 22,3 C 0,0 UV-I 0,0 C 58 % 80 % 0 % 1022,4 hPa 0,0 l/m 3,2 km/h (1 Bft) 0 min 13,2 km/h (3 Bft)
03.07.2010 21:36 27,2 C 22,0 C 0,0 UV-I 0,0 C 58 % 81 % 0 % 1022,4 hPa 0,3 l/m 3,2 km/h (1 Bft) 0 min 3,2 km/h (1 Bft)
03.07.2010 21:38 27,3 C 22,0 C 0,0 UV-I 0,0 C 58 % 81 % 0 % 1022,4 hPa 0,2 l/m 2,8 km/h (1 Bft) 0 min 0,0 km/h (0 Bft)
03.07.2010 21:44 27,2 C 21,8 C 0,0 UV-I 0,0 C 59 % 83 % 0 % 1022,4 hPa 0,0 l/m 0,8 km/h (0 Bft) 0 min 0,0 km/h (0 Bft)
03.07.2010 21:48 27,2 C 21,7 C 0,0 UV-I 0,0 C 59 % 83 % 0 % 1022,4 hPa 0,1 l/m 0,8 km/h (0 Bft) 0 min 0,0 km/h (0 Bft)
03.07.2010 21:52 27,2 C 21,5 C 0,0 UV-I 0,0 C 59 % 84 % 0 % 1022,7 hPa 0,0 l/m 0,8 km/h (0 Bft) 0 min 0,0 km/h (0 Bft)
03.07.2010 21:54 27,2 C 21,5 C 0,0 UV-I 0,0 C 59 % 84 % 0 % 1022,7 hPa 0,0 l/m 0,4 km/h (0 Bft) 0 min 3,2 km/h (1 Bft)
03.07.2010 21:56 27,2 C 21,4 C 0,0 UV-I 0,0 C 59 % 85 % 0 % 1022,7 hPa 0,0 l/m 0,4 km/h (0 Bft) 0 min 0,0 km/h (0 Bft)
03.07.2010 21:58 27,1 C 21,4 C 0,0 UV-I 0,0 C 60 % 85 % 0 % 1022,7 hPa 0,0 l/m 0,4 km/h (0 Bft) 0 min 0,0 km/h (0 Bft)
03.07.2010 22:02 27,1 C 21,3 C 0,0 UV-I 0,0 C 60 % 85 % 0 % 1022,7 hPa 0,0 l/m 0,4 km/h (0 Bft) 0 min 0,0 km/h (0 Bft)
03.07.2010 22:04 27,1 C 21,3 C 0,0 UV-I 0,0 C 60 % 85 % 0 % 1022,7 hPa 0,0 l/m 0,0 km/h (0 Bft) 0 min 0,0 km/h (0 Bft)
03.07.2010 22:08 27,0 C 21,2 C 0,0 UV-I 0,0 C 60 % 86 % 0 % 1022,7 hPa 0,0 l/m 0,0 km/h (0 Bft) 0 min 0,0 km/h (0 Bft)
03.07.2010 22:16 27,0 C 21,1 C 0,0 UV-I 0,0 C 61 % 87 % 0 % 1023,1 hPa 0,0 l/m 0,0 km/h (0 Bft) 0 min 0,0 km/h (0 Bft)
03.07.2010 22:18 27,0 C 21,1 C 0,0 UV-I 0,0 C 61 % 87 % 0 % 1023,1 hPa 0,0 l/m 0,0 km/h (0 Bft) 0 min 0,0 km/h (0 Bft)
03.07.2010 22:26 27,0 C 21,1 C 0,0 UV-I 0,0 C 61 % 88 % 0 % 1023,1 hPa 0,0 l/m 0,4 km/h (0 Bft) 0 min 0,0 km/h (0 Bft)
03.07.2010 22:30 26,9 C 21,1 C 0,0 UV-I 0,0 C 61 % 88 % 0 % 1023,2 hPa 0,0 l/m 0,4 km/h (0 Bft) 0 min 0,0 km/h (0 Bft)
03.07.2010 22:32 26,9 C 21,1 C 0,0 UV-I 0,0 C 61 % 88 % 0 % 1023,2 hPa 0,0 l/m 0,8 km/h (0 Bft) 0 min 3,5 km/h (1 Bft)
03.07.2010 22:34 26,9 C 20,9 C 0,0 UV-I 0,0 C 61 % 88 % 0 % 1023,2 hPa 0,0 l/m 1,6 km/h (1 Bft) 0 min 4,8 km/h (1 Bft)
03.07.2010 22:38 26,9 C 20,9 C 0,0 UV-I 0,0 C 61 % 88 % 0 % 1023,2 hPa 0,0 l/m 2,8 km/h (1 Bft) 0 min 3,5 km/h (1 Bft)
03.07.2010 22:46 26,8 C 20,9 C 0,0 UV-I 0,0 C 61 % 88 % 0 % 1023,2 hPa 0,0 l/m 1,2 km/h (1 Bft) 0 min 0,0 km/h (0 Bft)
03.07.2010 22:48 26,8 C 20,9 C 0,0 UV-I 0,0 C 61 % 88 % 0 % 1023,2 hPa 0,0 l/m 1,2 km/h (1 Bft) 0 min 10,6 km/h (2 Bft)
03.07.2010 22:50 26,8 C 20,8 C 0,0 UV-I 0,0 C 61 % 88 % 0 % 1023,6 hPa 0,0 l/m 1,2 km/h (1 Bft) 0 min 10,6 km/h (2 Bft)
03.07.2010 22:52 26,8 C 20,8 C 0,0 UV-I 0,0 C 61 % 88 % 0 % 1023,6 hPa 0,0 l/m 1,6 km/h (1 Bft) 0 min 7,1 km/h (2 Bft)
03.07.2010 22:58 26,8 C 20,8 C 0,0 UV-I 0,0 C 61 % 88 % 0 % 1023,6 hPa 0,0 l/m 2,0 km/h (1 Bft) 0 min 3,5 km/h (1 Bft)
03.07.2010 23:02 26,8 C 20,9 C 0,0 UV-I 0,0 C 61 % 88 % 0 % 1023,6 hPa 0,0 l/m 1,6 km/h (1 Bft) 0 min 0,0 km/h (0 Bft)
03.07.2010 23:08 26,8 C 20,8 C 0,0 UV-I 0,0 C 62 % 89 % 0 % 1023,6 hPa 0,0 l/m 1,2 km/h (1 Bft) 0 min 0,0 km/h (0 Bft)
03.07.2010 23:10 26,8 C 20,8 C 0,0 UV-I 0,0 C 62 % 89 % 0 % 1023,6 hPa 0,0 l/m 1,2 km/h (1 Bft) 0 min 0,0 km/h (0 Bft)
03.07.2010 23:18 26,7 C 20,7 C 0,0 UV-I 0,0 C 62 % 89 % 0 % 1023,6 hPa 0,0 l/m 0,4 km/h (0 Bft) 0 min 0,0 km/h (0 Bft)
03.07.2010 23:26 26,7 C 20,7 C 0,0 UV-I 0,0 C 62 % 89 % 0 % 1023,6 hPa 0,0 l/m 0,4 km/h (0 Bft) 0 min 3,9 km/h (1 Bft)
03.07.2010 23:28 26,7 C 20,7 C 0,0 UV-I 0,0 C 62 % 89 % 0 % 1023,4 hPa 0,0 l/m 0,4 km/h (0 Bft) 0 min 0,0 km/h (0 Bft)
03.07.2010 23:33 26,7 C 20,5 C 0,0 UV-I 0,0 C 62 % 89 % 0 % 1023,4 hPa 0,0 l/m 0,8 km/h (0 Bft) 0 min 0,0 km/h (0 Bft)
03.07.2010 23:38 26,6 C 20,5 C 0,0 UV-I 0,0 C 62 % 89 % 0 % 1023,4 hPa 0,0 l/m 1,2 km/h (1 Bft) 0 min 0,0 km/h (0 Bft)
03.07.2010 23:43 26,6 C 20,4 C 0,0 UV-I 0,0 C 62 % 89 % 0 % 1023,4 hPa 0,0 l/m 0,4 km/h (0 Bft) 0 min 0,0 km/h (0 Bft)
03.07.2010 23:48 26,6 C 20,4 C 0,0 UV-I 0,0 C 62 % 90 % 0 % 1023,5 hPa 0,0 l/m 0,0 km/h (0 Bft) 0 min 0,0 km/h (0 Bft)
03.07.2010 23:54 26,6 C 20,3 C 0,0 UV-I 0,0 C 62 % 90 % 0 % 1023,5 hPa 0,0 l/m 0,0 km/h (0 Bft) 0 min 0,0 km/h (0 Bft)
03.07.2010 23:56 26,6 C 20,3 C 0,0 UV-I 0,0 C 62 % 90 % 0 % 1023,5 hPa 0,0 l/m 0,0 km/h (0 Bft) 0 min 0,0 km/h (0 Bft)
03.07.2010 23:58 26,6 C 20,3 C 0,0 UV-I 0,0 C 63 % 90 % 0 % 1023,5 hPa 0,0 l/m 0,0 km/h (0 Bft) 0 min 0,0 km/h (0 Bft)
_ Min-Zeit 06:12 23:54 00:00 00:00 00:00 14:56 00:00 02:34 - 02:34 - 00:02
Minimum _ 26,4 C 20,3 C 0,0 UV-I 0,0 C 51 % 44 % 0 % 1017,5 hPa - 0,0 km/h (0 Bft) - 0,0 km/h (0 Bft)
_ Max-Zeit 15:04 14:52 11:32 11:36 23:58 23:48 08:26 22:50 21:32 18:52 08:18 18:52
Maximum _ 29,2 C 33,1 C 12,9 UV-I 6,6 C 63 % 90 % 100 % 1023,6 hPa 0,6 l/m 14,1 km/h
W (3 Bft)
2 min 29,6 km/h
W (5 Bft)
Durchschnitt _ 27,3 C 25,4 C 3,0 UV-I 1,6 C 55 % 65 % 32 % 1019,7 hPa #2,6 l/m 3,2 km/h (1 Bft) #6:30 h 4,2 km/h (1 Bft)
© 2012 W. Hausmann